KC5DAQ-28 Weather Reports


Display with metric or nautical units.
time (UTC)temp
F
wind
direction
speed
MPH
gust
MPH
rain 1hr
in
rain 24hr
in
rain mn
in
humidity
%
barometer
mb
20260506113603 75 173 2.0 6.0 0.00 0.00 0.00 92 1003.3
20260506113503 75 176 2.0 6.0 0.00 0.00 0.00 92 1003.2
20260506113402 75 178 2.0 6.0 0.00 0.00 0.00 92 1003.3
20260506113303 75 124 2.0 6.0 0.00 0.00 0.00 92 1003.2
20260506113204 75 168 3.0 6.0 0.00 0.00 0.00 92 1003.2
20260506113102 75 109 3.0 6.0 0.00 0.00 0.00 92 1003.1
20260506113003 75 151 2.0 6.0 0.00 0.00 0.00 92 1003.1
20260506112902 75 154 2.0 6.0 0.00 0.00 0.00 92 1003.1
20260506112804 75 158 3.0 6.0 0.00 0.00 0.00 92 1003.1
20260506112703 75 149 2.0 6.0 0.00 0.00 0.00 92 1003.1
20260506112603 75 151 2.0 5.0 0.00 0.00 0.00 92 1003.1
20260506112504 75 155 2.0 5.0 0.00 0.00 0.00 92 1003.1
20260506112403 75 157 3.0 5.0 0.00 0.00 0.00 92 1003.2
20260506112305 75 162 3.0 5.0 0.00 0.00 0.00 92 1003.2
20260506112203 75 169 1.0 3.0 0.00 0.00 0.00 92 1003.2
20260506112103 75 169 1.0 3.0 0.00 0.00 0.00 92 1003.2
20260506112004 75 171 1.0 3.0 0.00 0.00 0.00 92 1003.1
20260506111903 75 171 1.0 3.0 0.00 0.00 0.00 92 1003.1
20260506111802 75 172 1.0 4.0 0.00 0.00 0.00 92 1003.2
20260506111703 75 172 1.0 4.0 0.00 0.00 0.00 92 1003.2
20260506111602 75 182 2.0 4.0 0.00 0.00 0.00 92 1003.1
20260506111503 75 207 2.0 4.0 0.00 0.00 0.00 92 1003.2
20260506111405 75 207 2.0 4.0 0.00 0.00 0.00 92 1003.1
20260506111304 75 162 1.0 4.0 0.00 0.00 0.00 92 1003.1
20260506111203 75 162 1.0 4.0 0.00 0.00 0.00 92 1003.1
20260506111102 75 154 1.0 4.0 0.00 0.00 0.00 92 1003.0
20260506111004 75 155 2.0 4.0 0.00 0.00 0.00 92 1002.9
20260506110903 75 154 2.0 4.0 0.00 0.00 0.00 92 1002.9
20260506110802 75 148 2.0 4.0 0.00 0.00 0.00 92 1002.9
20260506110703 75 148 2.0 4.0 0.00 0.00 0.00 92 1002.9
20260506110602 75 135 2.0 4.0 0.00 0.00 0.00 92 1002.8
20260506110504 75 144 2.0 3.0 0.00 0.00 0.00 92 1002.8
20260506110401 75 144 2.0 3.0 0.00 0.00 0.00 92 1002.8
20260506110304 75 137 2.0 3.0 0.00 0.00 0.00 92 1002.7
20260506110204 75 154 1.0 3.0 0.00 0.00 0.00 92 1002.7
20260506110005 75 152 1.0 3.0 0.00 0.00 0.00 92 1002.8
20260506105902 75 152 1.0 3.0 0.00 0.00 0.00 92 1002.8
20260506105804 75 152 1.0 3.0 0.00 0.00 0.00 92 1002.8
20260506105704 75 152 1.0 3.0 0.00 0.00 0.00 92 1002.8
20260506105603 75 152 2.0 4.0 0.00 0.00 0.00 92 1002.7
20260506105505 75 151 2.0 4.0 0.00 0.00 0.00 92 1002.8
20260506105403 75 154 2.0 4.0 0.00 0.00 0.00 92 1002.8
20260506105304 75 155 2.0 4.0 0.00 0.00 0.00 92 1002.8
20260506105204 75 157 2.0 4.0 0.00 0.00 0.00 92 1002.8
20260506105103 75 162 2.0 4.0 0.00 0.00 0.00 92 1002.8
20260506105004 75 147 2.0 4.0 0.00 0.00 0.00 92 1002.7
20260506104903 75 148 2.0 4.0 0.00 0.00 0.00 92 1002.7
20260506104803 75 148 2.0 4.0 0.00 0.00 0.00 92 1002.7
20260506104701 75 148 2.0 4.0 0.00 0.00 0.00 92 1002.6
20260506104601 75 152 2.0 4.0 0.00 0.00 0.00 92 1002.6
20260506104503 75 155 2.0 4.0 0.00 0.00 0.00 92 1002.6
20260506104403 75 164 2.0 5.0 0.00 0.00 0.00 92 1002.6
20260506104302 75 166 2.0 5.0 0.00 0.00 0.00 92 1002.6
20260506104204 75 171 2.0 5.0 0.00 0.00 0.00 92 1002.7
20260506104101 75 169 2.0 5.0 0.00 0.00 0.00 92 1002.6
20260506104003 75 155 2.0 5.0 0.00 0.00 0.00 92 1002.6
20260506103904 75 155 2.0 5.0 0.00 0.00 0.00 92 1002.5
20260506103803 75 152 2.0 5.0 0.00 0.00 0.00 92 1002.5
20260506103704 75 155 2.0 5.0 0.00 0.00 0.00 92 1002.6
20260506103603 75 155 2.0 5.0 0.00 0.00 0.00 91 1002.6
20260506103502 75 165 2.0 5.0 0.00 0.00 0.00 91 1002.7
20260506103403 75 123 2.0 4.0 0.00 0.00 0.00 91 1002.7
20260506103302 75 121 2.0 4.0 0.00 0.00 0.00 91 1002.7
20260506103203 75 157 2.0 4.0 0.00 0.00 0.00 91 1002.7
20260506103104 75 158 1.0 4.0 0.00 0.00 0.00 91 1002.7
20260506103002 75 158 2.0 7.0 0.00 0.00 0.00 91 1002.6
20260506102903 75 158 2.0 7.0 0.00 0.00 0.00 91 1002.6
20260506102803 75 162 1.0 7.0 0.00 0.00 0.00 91 1002.7
20260506102702 75 162 2.0 7.0 0.00 0.00 0.00 91 1002.8
20260506102603 75 164 2.0 7.0 0.00 0.00 0.00 91 1002.8
20260506102504 75 148 2.0 7.0 0.00 0.00 0.00 91 1002.8
20260506102403 75 151 1.0 7.0 0.00 0.00 0.00 91 1002.8
20260506102305 75 151 2.0 7.0 0.00 0.00 0.00 91 1002.9
20260506102203 75 154 3.0 7.0 0.00 0.00 0.00 91 1002.9
20260506102103 75 144 3.0 7.0 0.00 0.00 0.00 91 1002.8
20260506102004 75 138 2.0 4.0 0.00 0.00 0.00 91 1002.8
20260506101903 75 148 2.0 4.0 0.00 0.00 0.00 91 1002.8
20260506101802 75 147 2.0 4.0 0.00 0.00 0.00 91 1002.8
20260506101702 75 137 1.0 4.0 0.00 0.00 0.00 91 1002.7
20260506101603 75 135 1.0 4.0 0.00 0.00 0.00 91 1002.6
20260506101503 75 135 2.0 4.0 0.00 0.00 0.00 91 1002.6
20260506101403 75 137 2.0 6.0 0.00 0.00 0.00 91 1002.6
20260506101303 75 123 2.0 6.0 0.00 0.00 0.00 91 1002.6
20260506101202 75 141 2.0 6.0 0.00 0.00 0.00 91 1002.6
20260506101103 75 158 2.0 6.0 0.00 0.00 0.00 91 1002.7
20260506101005 75 161 3.0 6.0 0.00 0.00 0.00 91 1002.7
20260506100903 75 135 2.0 6.0 0.00 0.00 0.00 91 1002.7
20260506100802 75 154 2.0 6.0 0.00 0.00 0.00 91 1002.8
20260506100704 75 165 2.0 6.0 0.00 0.00 0.00 91 1002.7
20260506100601 75 166 2.0 6.0 0.00 0.00 0.00 91 1002.8
20260506100504 75 154 2.0 6.0 0.00 0.00 0.00 91 1002.7
20260506100404 75 161 1.0 6.0 0.00 0.00 0.00 90 1002.7
20260506100303 75 148 1.0 6.0 0.00 0.00 0.00 90 1002.7
20260506100203 75 148 2.0 6.0 0.00 0.00 0.00 90 1002.6
20260506100104 75 147 3.0 6.0 0.00 0.00 0.00 90 1002.6
20260506100004 75 152 2.0 6.0 0.00 0.00 0.00 90 1002.6
20260506095902 75 138 2.0 6.0 0.00 0.00 0.00 90 1002.6
20260506095802 75 142 3.0 6.0 0.00 0.00 0.00 90 1002.6
20260506095702 75 155 4.0 6.0 0.00 0.00 0.00 90 1002.5
20260506095602 75 157 2.0 6.0 0.00 0.00 0.00 90 1002.5
20260506095503 75 162 2.0 6.0 0.00 0.00 0.00 90 1002.5
20260506095402 75 165 2.0 6.0 0.00 0.00 0.00 90 1002.5
20260506095305 76 158 2.0 6.0 0.00 0.00 0.00 90 1002.6
20260506095203 76 125 3.0 6.0 0.00 0.00 0.00 90 1002.5
20260506095104 76 169 3.0 6.0 0.00 0.00 0.00 90 1002.4
20260506095004 76 141 3.0 6.0 0.00 0.00 0.00 90 1002.5
20260506094903 76 166 4.0 6.0 0.00 0.00 0.00 90 1002.4
20260506094803 76 159 3.0 6.0 0.00 0.00 0.00 90 1002.6
20260506094702 76 138 2.0 6.0 0.00 0.00 0.00 90 1002.5
20260506094603 76 162 2.0 6.0 0.00 0.00 0.00 90 1002.5
20260506094505 76 158 3.0 6.0 0.00 0.00 0.00 90 1002.5
20260506094402 76 195 2.0 6.0 0.00 0.00 0.00 90 1002.5
20260506094304 76 162 2.0 7.0 0.00 0.00 0.00 90 1002.5
20260506094201 76 165 2.0 7.0 0.00 0.00 0.00 90 1002.5
20260506094103 76 166 3.0 9.0 0.00 0.00 0.00 90 1002.4
20260506094005 76 144 2.0 9.0 0.00 0.00 0.00 90 1002.4
20260506093902 76 157 3.0 9.0 0.00 0.00 0.00 90 1002.5
20260506093803 76 158 3.0 9.0 0.00 0.00 0.00 90 1002.4
20260506093702 76 173 3.0 9.0 0.00 0.00 0.00 90 1002.4
20260506093603 76 169 4.0 9.0 0.00 0.00 0.00 90 1002.4
20260506093504 76 166 4.0 9.0 0.00 0.00 0.00 90 1002.4
20260506093403 76 141 4.0 9.0 0.00 0.00 0.00 90 1002.3
20260506093303 76 152 3.0 9.0 0.00 0.00 0.00 90 1002.3
20260506093201 76 127 2.0 9.0 0.00 0.00 0.00 90 1002.2
20260506093103 76 165 2.0 11.0 0.00 0.00 0.00 90 1002.3
20260506093004 76 183 2.0 11.0 0.00 0.00 0.00 90 1002.3
20260506092902 76 154 2.0 11.0 0.00 0.00 0.00 90 1002.3
20260506092804 76 157 3.0 11.0 0.00 0.00 0.00 90 1002.3
20260506092701 76 138 3.0 11.0 0.00 0.00 0.00 90 1002.3
20260506092603 76 130 4.0 11.0 0.00 0.00 0.00 90 1002.2
20260506092502 76 173 4.0 11.0 0.00 0.00 0.00 90 1002.2
20260506092403 76 141 4.0 11.0 0.00 0.00 0.00 90 1002.3
20260506092306 76 159 5.0 11.0 0.00 0.00 0.00 90 1002.2
20260506092203 76 147 4.0 11.0 0.00 0.00 0.00 90 1002.2
20260506092103 76 159 3.0 9.0 0.00 0.00 0.00 90 1002.2
20260506092003 76 144 3.0 9.0 0.00 0.00 0.00 89 1002.3
20260506091904 76 138 4.0 11.0 0.00 0.00 0.00 89 1002.3
20260506091802 76 151 3.0 11.0 0.00 0.00 0.00 89 1002.4
20260506091702 76 159 3.0 11.0 0.00 0.00 0.00 89 1002.3
20260506091603 76 147 4.0 11.0 0.00 0.00 0.00 89 1002.4
20260506091504 76 94 4.0 11.0 0.00 0.00 0.00 89 1002.4
20260506091403 76 124 3.0 11.0 0.00 0.00 0.00 89 1002.3
20260506091302 76 142 4.0 11.0 0.00 0.00 0.00 89 1002.3
20260506091203 76 121 5.0 11.0 0.00 0.00 0.00 89 1002.3
20260506091105 76 186 6.0 11.0 0.00 0.00 0.00 89 1002.3
20260506091003 76 149 4.0 11.0 0.00 0.00 0.00 89 1002.3
20260506090901 76 142 2.0 9.0 0.00 0.00 0.00 89 1002.3
20260506090801 76 148 2.0 9.0 0.00 0.00 0.00 89 1002.3
20260506090703 76 142 4.0 9.0 0.00 0.00 0.00 89 1002.3
20260506090605 76 171 5.0 9.0 0.00 0.00 0.00 89 1002.3
20260506090503 76 195 5.0 9.0 0.00 0.00 0.00 89 1002.3
20260506090402 76 134 4.0 9.0 0.00 0.00 0.00 89 1002.3
20260506090302 76 142 3.0 9.0 0.00 0.00 0.00 89 1002.3
20260506090203 76 147 4.0 9.0 0.00 0.00 0.00 89 1002.3
20260506090004 76 145 5.0 9.0 0.00 0.00 0.00 89 1002.4
20260506085904 76 188 5.0 9.0 0.00 0.00 0.00 89 1002.3
20260506085802 76 154 4.0 7.0 0.00 0.00 0.00 89 1002.3
20260506085704 76 141 3.0 11.0 0.00 0.00 0.00 89 1002.4
20260506085604 76 133 3.0 11.0 0.00 0.00 0.00 89 1002.4
20260506085504 76 166 3.0 11.0 0.00 0.00 0.00 89 1002.4
20260506085403 76 152 4.0 11.0 0.00 0.00 0.00 89 1002.4
20260506085306 76 176 3.0 11.0 0.00 0.00 0.00 89 1002.4
20260506085204 76 133 2.0 11.0 0.00 0.00 0.00 89 1002.6
20260506085103 76 137 3.0 11.0 0.00 0.00 0.00 89 1002.5
20260506085004 76 138 4.0 11.0 0.00 0.00 0.00 89 1002.5
20260506084903 76 137 5.0 11.0 0.00 0.00 0.00 89 1002.5
20260506084804 76 255 5.0 11.0 0.00 0.00 0.00 89 1002.5
20260506084703 76 155 4.0 6.0 0.00 0.00 0.00 89 1002.5
20260506084604 76 188 3.0 6.0 0.00 0.00 0.00 89 1002.6
20260506084505 76 165 3.0 6.0 0.00 0.00 0.00 89 1002.6
20260506084403 76 168 3.0 6.0 0.00 0.00 0.00 89 1002.7
20260506084302 76 159 3.0 7.0 0.00 0.00 0.00 89 1002.7
20260506084203 76 147 2.0 7.0 0.00 0.00 0.00 89 1002.6
20260506084103 76 162 2.0 7.0 0.00 0.00 0.00 89 1002.6
20260506084003 76 171 2.0 7.0 0.00 0.00 0.00 89 1002.5
20260506083903 76 96 2.0 7.0 0.00 0.00 0.00 89 1002.5
20260506083803 76 159 3.0 7.0 0.00 0.00 0.00 89 1002.5
20260506083702 76 158 4.0 7.0 0.00 0.00 0.00 89 1002.5
20260506083603 76 176 4.0 7.0 0.00 0.00 0.00 89 1002.6
20260506083504 76 140 4.0 7.0 0.00 0.00 0.00 89 1002.5
20260506083402 76 154 4.0 7.0 0.00 0.00 0.00 89 1002.5
20260506083305 76 125 3.0 6.0 0.00 0.00 0.00 89 1002.6
20260506083203 76 175 4.0 6.0 0.00 0.00 0.00 89 1002.6
20260506083104 76 159 4.0 6.0 0.00 0.00 0.00 89 1002.5
20260506083004 76 133 3.0 6.0 0.00 0.00 0.00 89 1002.5
20260506082905 77 141 4.0 6.0 0.00 0.00 0.00 89 1002.5
20260506082803 76 157 3.0 6.0 0.00 0.00 0.00 89 1002.5
20260506082702 76 154 3.0 6.0 0.00 0.00 0.00 89 1002.5
20260506082604 76 144 3.0 6.0 0.00 0.00 0.00 89 1002.6
20260506082503 76 144 4.0 6.0 0.00 0.00 0.00 89 1002.6
20260506082402 76 182 4.0 6.0 0.00 0.00 0.00 89 1002.6
20260506082304 76 154 3.0 6.0 0.00 0.00 0.00 89 1002.7
20260506082203 76 149 3.0 6.0 0.00 0.00 0.00 89 1002.6
20260506082104 77 166 2.0 6.0 0.00 0.00 0.00 89 1002.7
20260506082004 77 141 2.0 6.0 0.00 0.00 0.00 89 1002.7
20260506081904 77 166 2.0 6.0 0.00 0.00 0.00 89 1002.7
20260506081804 76 155 3.0 6.0 0.00 0.00 0.00 89 1002.7
20260506081702 76 164 4.0 6.0 0.00 0.00 0.00 89 1002.7
20260506081603 76 142 4.0 6.0 0.00 0.00 0.00 89 1002.7
20260506081502 76 159 2.0 6.0 0.00 0.00 0.00 89 1002.7
20260506081402 76 188 3.0 6.0 0.00 0.00 0.00 89 1002.7
20260506081303 77 164 3.0 6.0 0.00 0.00 0.00 89 1002.8
20260506081203 76 165 3.0 6.0 0.00 0.00 0.00 89 1002.7
20260506081104 76 165 3.0 6.0 0.00 0.00 0.00 89 1002.7
20260506081002 76 142 4.0 6.0 0.00 0.00 0.00 89 1002.8
20260506080904 76 145 4.0 6.0 0.00 0.00 0.00 89 1002.8
20260506080804 76 147 3.0 6.0 0.00 0.00 0.00 89 1002.8
20260506080703 76 168 3.0 6.0 0.00 0.00 0.00 89 1002.8
20260506080603 76 154 3.0 6.0 0.00 0.00 0.00 89 1002.8
20260506080503 76 161 3.0 6.0 0.00 0.00 0.00 89 1002.8
20260506080404 76 157 2.0 6.0 0.00 0.00 0.00 89 1002.7
20260506080302 76 123 2.0 6.0 0.00 0.00 0.00 89 1002.7
20260506080203 76 140 3.0 6.0 0.00 0.00 0.00 89 1002.7
20260506080104 76 135 2.0 6.0 0.00 0.00 0.00 89 1002.7
20260506073504 76 161 3.0 6.0 0.00 0.00 0.00 89 1003.1
20260506073403 76 144 3.0 6.0 0.00 0.00 0.00 89 1003.1
20260506073302 76 165 3.0 6.0 0.00 0.00 0.00 89 1003.2
20260506073204 76 176 2.0 5.0 0.00 0.00 0.00 89 1003.1
20260506073102 76 138 2.0 5.0 0.00 0.00 0.00 89 1003.1
20260506073003 76 158 2.0 5.0 0.00 0.00 0.00 89 1003.2
20260506072903 76 149 1.0 5.0 0.00 0.00 0.00 89 1003.1
20260506072804 76 171 2.0 5.0 0.00 0.00 0.00 89 1003.2
20260506072704 76 179 3.0 5.0 0.00 0.00 0.00 89 1003.2
20260506072603 76 142 2.0 5.0 0.00 0.00 0.00 89 1003.2
20260506072503 77 154 2.0 5.0 0.00 0.00 0.00 89 1003.2
20260506072403 76 117 2.0 5.0 0.00 0.00 0.00 89 1003.3
20260506072305 77 157 2.0 5.0 0.00 0.00 0.00 89 1003.3
20260506072202 77 138 2.0 5.0 0.00 0.00 0.00 89 1003.3
20260506072102 76 133 2.0 5.0 0.00 0.00 0.00 89 1003.2
20260506072004 77 171 1.0 5.0 0.00 0.00 0.00 89 1003.3
20260506071903 77 161 1.0 5.0 0.00 0.00 0.00 89 1003.3
20260506071803 77 161 2.0 9.0 0.00 0.00 0.00 89 1003.3
20260506071703 77 161 2.0 9.0 0.00 0.00 0.00 89 1003.4
20260506071604 77 175 1.0 9.0 0.00 0.00 0.00 89 1003.3
20260506071503 77 188 2.0 9.0 0.00 0.00 0.00 89 1003.4
20260506071403 77 172 3.0 9.0 0.00 0.00 0.00 89 1003.3
20260506071301 77 145 2.0 9.0 0.00 0.00 0.00 89 1003.4
20260506071202 77 161 2.0 9.0 0.00 0.00 0.00 89 1003.3
20260506071104 77 175 3.0 9.0 0.00 0.00 0.00 89 1003.3
20260506071005 77 134 3.0 9.0 0.00 0.00 0.00 89 1003.3
20260506070904 77 138 3.0 9.0 0.00 0.00 0.00 89 1003.3
20260506070805 77 141 2.0 5.0 0.00 0.00 0.00 89 1003.3
20260506070702 77 166 2.0 5.0 0.00 0.00 0.00 89 1003.4
20260506070603 77 155 2.0 5.0 0.00 0.00 0.00 89 1003.3
20260506070503 77 151 2.0 5.0 0.00 0.00 0.00 89 1003.3
20260506070403 77 144 2.0 5.0 0.00 0.00 0.00 89 1003.2
20260506070304 77 144 2.0 5.0 0.00 0.00 0.00 89 1003.3
20260506070203 77 164 2.0 5.0 0.00 0.00 0.00 89 1003.2
20260506070103 77 202 2.0 5.0 0.00 0.00 0.00 89 1003.2
20260506062505 77 144 2.0 6.0 0.00 0.00 0.00 89 1003.4
20260506062402 77 186 2.0 6.0 0.00 0.00 0.00 89 1003.4
20260506062305 77 135 4.0 6.0 0.00 0.00 0.00 89 1003.4
20260506062203 77 197 3.0 6.0 0.00 0.00 0.00 89 1003.4
20260506062103 77 135 2.0 4.0 0.00 0.00 0.00 89 1003.4
20260506062002 77 152 3.0 4.0 0.00 0.00 0.00 89 1003.4
20260506061902 77 173 2.0 4.0 0.00 0.00 0.00 89 1003.5
20260506061803 77 145 2.0 4.0 0.00 0.00 0.00 89 1003.5
20260506061702 77 183 3.0 4.0 0.00 0.00 0.00 89 1003.5
20260506061603 0 0.0 0.0 0.00 0.00 0.00 1003.4
20260506061504 0 0.0 0.0 0.00 0.00 0.00 1003.5
20260506061404 0 0.0 0.0 0.00 0.00 0.00 1003.5
20260506061303 0 140 4.0 4.0 0.00 0.00 0.00 1003.5
20260506061203 77 140 4.0 5.0 0.00 0.00 0.00 89 1003.5
20260506061103 77 140 4.0 5.0 0.00 0.00 0.00 89 1003.5
20260506061004 77 140 4.0 5.0 0.00 0.00 0.00 89 1003.5
20260506060904 77 140 4.0 5.0 0.00 0.00 0.00 89 1003.4
20260506060703 77 140 4.0 5.0 0.00 0.00 0.00 89 1003.5
20260506060602 77 140 4.0 5.0 0.00 0.00 0.00 89 1003.5
20260506060504 77 140 4.0 5.0 0.00 0.00 0.00 89 1003.5
20260506060404 77 140 4.0 5.0 0.00 0.00 0.00 89 1003.5
20260506060304 77 154 4.0 5.0 0.00 0.00 0.00 89 1003.6
20260506060203 77 135 4.0 5.0 0.00 0.00 0.00 89 1003.6
20260506051404 77 157 2.0 5.0 0.00 0.00 0.00 89 1003.4
20260506051303 77 161 2.0 5.0 0.00 0.00 0.00 89 1003.4
20260506051202 77 164 2.0 5.0 0.00 0.00 0.00 89 1003.4
20260506051102 77 134 1.0 6.0 0.00 0.00 0.00 89 1003.4
20260506051003 77 137 2.0 7.0 0.00 0.00 0.00 89 1003.3
20260506050902 77 135 3.0 7.0 0.00 0.00 0.00 89 1003.3
20260506050803 77 135 3.0 7.0 0.00 0.00 0.00 89 1003.4
20260506050702 77 166 3.0 7.0 0.00 0.00 0.00 89 1003.5
20260506050602 77 142 2.0 7.0 0.00 0.00 0.00 89 1003.4
20260506050502 77 147 2.0 7.0 0.00 0.00 0.00 89 1003.4
20260506050405 77 158 3.0 7.0 0.00 0.00 0.00 89 1003.4
20260506050302 77 158 3.0 7.0 0.00 0.00 0.00 88 1003.3
20260506050202 77 111 3.0 7.0 0.00 0.00 0.00 88 1003.4
20260506050104 77 131 4.0 7.0 0.00 0.00 0.00 88 1003.5
20260506045102 77 140 3.0 7.0 0.00 0.00 0.00 88 1003.1
20260506045002 77 172 4.0 7.0 0.00 0.00 0.00 88 1003.1
20260506044902 77 165 4.0 6.0 0.00 0.00 0.00 88 1003.2
20260506044804 77 113 3.0 6.0 0.00 0.00 0.00 88 1003.1
20260506044703 77 135 3.0 6.0 0.00 0.00 0.00 88 1003.2
20260506044603 77 128 4.0 6.0 0.00 0.00 0.00 88 1003.2
20260506044503 77 142 4.0 6.0 0.00 0.00 0.00 87 1003.2
20260506044403 77 128 3.0 6.0 0.00 0.00 0.00 87 1003.2
20260506044303 77 118 3.0 4.0 0.00 0.00 0.00 87 1003.2
20260506044203 77 135 2.0 4.0 0.00 0.00 0.00 87 1003.3
20260506044102 77 159 2.0 5.0 0.00 0.00 0.00 87 1003.3
20260506044002 77 145 2.0 5.0 0.00 0.00 0.00 87 1003.3
20260506043902 77 142 2.0 5.0 0.00 0.00 0.00 87 1003.4
20260506043802 77 127 3.0 5.0 0.00 0.00 0.00 87 1003.3
20260506043703 77 114 3.0 5.0 0.00 0.00 0.00 87 1003.5
20260506043604 77 141 3.0 5.0 0.00 0.00 0.00 87 1003.5
20260506043503 77 142 3.0 6.0 0.00 0.00 0.00 87 1003.5
20260506043404 77 157 3.0 6.0 0.00 0.00 0.00 87 1003.5
20260506043303 77 154 3.0 6.0 0.00 0.00 0.00 87 1003.5
20260506043203 77 145 2.0 6.0 0.00 0.00 0.00 87 1003.5
20260506043101 77 123 2.0 6.0 0.00 0.00 0.00 87 1003.4
20260506043006 77 123 3.0 10.0 0.00 0.00 0.00 87 1003.4
20260506042904 77 124 3.0 10.0 0.00 0.00 0.00 87 1003.4
20260506042803 77 166 4.0 10.0 0.00 0.00 0.00 87 1003.4
20260506042704 77 152 4.0 10.0 0.00 0.00 0.00 87 1003.3
20260506042603 77 125 4.0 10.0 0.00 0.00 0.00 87 1003.4
20260506042502 77 169 3.0 10.0 0.00 0.00 0.00 87 1003.4
20260506042402 77 144 3.0 10.0 0.00 0.00 0.00 87 1003.4
20260506042305 77 179 3.0 10.0 0.00 0.00 0.00 87 1003.3
20260506042202 77 199 4.0 10.0 0.00 0.00 0.00 86 1003.4
20260506042103 77 162 5.0 10.0 0.00 0.00 0.00 86 1003.3
20260506042002 77 137 4.0 10.0 0.00 0.00 0.00 86 1003.3
20260506041905 77 135 3.0 10.0 0.00 0.00 0.00 86 1003.4
20260506041801 77 193 3.0 10.0 0.00 0.00 0.00 86 1003.4
20260506041702 77 154 3.0 10.0 0.00 0.00 0.00 86 1003.3
20260506041603 77 188 4.0 10.0 0.00 0.00 0.00 86 1003.3
20260506041506 77 121 4.0 10.0 0.00 0.00 0.00 86 1003.3
20260506041402 78 110 3.0 10.0 0.00 0.00 0.00 86 1003.3
20260506041302 78 151 2.0 10.0 0.00 0.00 0.00 86 1003.3
20260506041204 78 162 4.0 10.0 0.00 0.00 0.00 86 1003.3
20260506041102 78 128 5.0 10.0 0.00 0.00 0.00 86 1003.3
20260506041002 78 199 2.0 9.0 0.00 0.00 0.00 86 1003.3
20260506040903 78 111 3.0 9.0 0.00 0.00 0.00 86 1003.3
20260506040802 78 110 3.0 9.0 0.00 0.00 0.00 86 1003.2
20260506040704 78 151 3.0 9.0 0.00 0.00 0.00 86 1003.3
20260506040602 78 131 4.0 9.0 0.00 0.00 0.00 86 1003.2
20260506040504 78 155 4.0 9.0 0.00 0.00 0.00 86 1003.2
20260506040402 78 164 4.0 9.0 0.00 0.00 0.00 86 1003.1
20260506040303 78 152 2.0 9.0 0.00 0.00 0.00 85 1003.1
20260506040204 78 157 2.0 9.0 0.00 0.00 0.00 85 1003.1
20260506040005 78 193 4.0 9.0 0.00 0.00 0.00 85 1003.1
20260506035901 78 171 3.0 9.0 0.00 0.00 0.00 85 1003.0
20260506035802 78 166 2.0 9.0 0.00 0.00 0.00 85 1003.0
20260506035701 78 172 3.0 9.0 0.00 0.00 0.00 85 1003.0
20260506035602 78 164 5.0 9.0 0.00 0.00 0.00 85 1003.1
20260506035504 78 127 4.0 9.0 0.00 0.00 0.00 85 1003.1
20260506035404 78 131 3.0 7.0 0.00 0.00 0.00 85 1003.1
20260506035305 78 116 4.0 6.0 0.00 0.00 0.00 85 1003.1
20260506035204 78 188 4.0 6.0 0.00 0.00 0.00 85 1003.0
20260506035102 78 138 4.0 6.0 0.00 0.00 0.00 85 1003.0
20260506035002 78 142 4.0 6.0 0.00 0.00 0.00 85 1003.1
20260506034903 78 175 4.0 6.0 0.00 0.00 0.00 85 1003.1
20260506034802 78 169 4.0 7.0 0.00 0.00 0.00 85 1003.1
20260506034703 78 131 3.0 7.0 0.00 0.00 0.00 85 1003.1
20260506034603 78 213 4.0 7.0 0.00 0.00 0.00 85 1003.1
20260506034504 78 149 4.0 7.0 0.00 0.00 0.00 85 1003.2
20260506034402 78 128 4.0 7.0 0.00 0.00 0.00 85 1003.1
20260506034304 78 124 4.0 7.0 0.00 0.00 0.00 85 1003.2
20260506034202 78 128 4.0 7.0 0.00 0.00 0.00 85 1003.2
20260506034103 78 151 4.0 7.0 0.00 0.00 0.00 85 1003.1
20260506034002 78 135 4.0 7.0 0.00 0.00 0.00 85 1003.2
20260506033903 78 144 4.0 7.0 0.00 0.00 0.00 85 1003.2
20260506033803 78 137 3.0 6.0 0.00 0.00 0.00 85 1003.2
20260506033702 78 180 2.0 6.0 0.00 0.00 0.00 85 1003.1
20260506033603 78 182 2.0 6.0 0.00 0.00 0.00 85 1003.1
20260506033504 78 166 2.0 6.0 0.00 0.00 0.00 85 1003.1
20260506033404 78 135 2.0 6.0 0.00 0.00 0.00 85 1003.1
20260506033302 78 144 2.0 6.0 0.00 0.00 0.00 85 1003.1
20260506033202 78 165 3.0 6.0 0.00 0.00 0.00 85 1003.0
20260506033105 78 158 3.0 6.0 0.00 0.00 0.00 85 1003.0
20260506033003 78 138 3.0 6.0 0.00 0.00 0.00 85 1002.9
20260506032903 78 162 2.0 5.0 0.00 0.00 0.00 85 1002.9
20260506032803 78 161 2.0 6.0 0.00 0.00 0.00 85 1002.8
20260506032703 78 179 2.0 6.0 0.00 0.00 0.00 85 1002.8
20260506032602 78 176 2.0 6.0 0.00 0.00 0.00 85 1002.8
20260506032503 78 164 3.0 6.0 0.00 0.00 0.00 85 1002.8
20260506032404 78 172 3.0 9.0 0.00 0.00 0.00 85 1002.8
20260506032305 78 162 3.0 9.0 0.00 0.00 0.00 85 1002.7
20260506032203 78 135 4.0 9.0 0.00 0.00 0.00 85 1002.7
20260506032103 78 157 3.0 9.0 0.00 0.00 0.00 85 1002.6
20260506032003 78 158 3.0 10.0 0.00 0.00 0.00 85 1002.7
20260506031903 78 171 3.0 10.0 0.00 0.00 0.00 85 1002.6
20260506031803 78 135 3.0 10.0 0.00 0.00 0.00 85 1002.6
20260506031703 78 137 4.0 10.0 0.00 0.00 0.00 85 1002.5
20260506031603 78 190 5.0 10.0 0.00 0.00 0.00 85 1002.5
20260506031503 78 141 5.0 10.0 0.00 0.00 0.00 85 1002.6
20260506031403 78 188 4.0 10.0 0.00 0.00 0.00 85 1002.6
20260506031304 78 149 4.0 10.0 0.00 0.00 0.00 85 1002.5
20260506031202 78 197 5.0 10.0 0.00 0.00 0.00 85 1002.5
20260506031102 78 182 5.0 10.0 0.00 0.00 0.00 85 1002.4
20260506031004 78 137 5.0 10.0 0.00 0.00 0.00 85 1002.4
20260506030904 78 120 5.0 10.0 0.00 0.00 0.00 85 1002.3
20260506030801 78 189 5.0 10.0 0.00 0.00 0.00 85 1002.4
20260506030703 78 165 4.0 10.0 0.00 0.00 0.00 85 1002.3
20260506030603 78 130 3.0 10.0 0.00 0.00 0.00 85 1002.3
20260506030503 78 158 3.0 10.0 0.00 0.00 0.00 85 1002.3
20260506030402 78 147 5.0 10.0 0.00 0.00 0.00 84 1002.3
20260506030302 78 128 6.0 10.0 0.00 0.00 0.00 84 1002.3
20260506030203 78 154 5.0 10.0 0.00 0.00 0.00 85 1002.4
20260506030003 78 113 4.0 7.0 0.00 0.00 0.00 85 1002.4
20260506025903 78 178 4.0 7.0 0.00 0.00 0.00 85 1002.4
20260506025803 78 196 4.0 7.0 0.00 0.00 0.00 84 1002.4
20260506025703 78 149 4.0 7.0 0.00 0.00 0.00 84 1002.3
20260506025602 78 152 4.0 9.0 0.00 0.00 0.00 84 1002.4
20260506025505 78 158 3.0 9.0 0.00 0.00 0.00 84 1002.4
20260506025402 78 169 4.0 9.0 0.00 0.00 0.00 84 1002.4
20260506025305 78 157 5.0 9.0 0.00 0.00 0.00 84 1002.4
20260506025203 78 151 4.0 9.0 0.00 0.00 0.00 84 1002.5
20260506025103 78 137 4.0 12.0 0.00 0.00 0.00 84 1002.4
20260506025004 78 161 4.0 12.0 0.00 0.00 0.00 84 1002.3
20260506024903 78 162 5.0 12.0 0.00 0.00 0.00 84 1002.3
20260506024803 78 140 5.0 12.0 0.00 0.00 0.00 84 1002.4
20260506024703 78 111 4.0 12.0 0.00 0.00 0.00 84 1002.3
20260506024604 78 147 4.0 12.0 0.00 0.00 0.00 84 1002.4
20260506024503 78 147 6.0 12.0 0.00 0.00 0.00 84 1002.4
20260506024403 78 162 5.0 12.0 0.00 0.00 0.00 84 1002.4
20260506024304 78 173 5.0 12.0 0.00 0.00 0.00 84 1002.4
20260506024201 78 159 6.0 12.0 0.00 0.00 0.00 84 1002.3
20260506024105 78 118 5.0 10.0 0.00 0.00 0.00 84 1002.4
20260506024004 78 158 6.0 10.0 0.00 0.00 0.00 84 1002.4
20260506023902 78 151 5.0 10.0 0.00 0.00 0.00 84 1002.3
20260506023803 78 142 4.0 7.0 0.00 0.00 0.00 84 1002.3
20260506023702 78 164 4.0 7.0 0.00 0.00 0.00 84 1002.2
20260506023602 78 142 3.0 7.0 0.00 0.00 0.00 84 1002.2
20260506023502 78 145 2.0 7.0 0.00 0.00 0.00 84 1002.1
20260506023403 78 131 4.0 7.0 0.00 0.00 0.00 84 1002.1
20260506023303 79 168 5.0 7.0 0.00 0.00 0.00 84 1002.1
20260506023204 78 172 5.0 7.0 0.00 0.00 0.00 84 1002.1
20260506023102 79 148 5.0 7.0 0.00 0.00 0.00 84 1002.1
20260506023002 79 165 5.0 6.0 0.00 0.00 0.00 84 1002.1
20260506022903 79 148 4.0 6.0 0.00 0.00 0.00 83 1002.1
20260506022803 79 151 4.0 6.0 0.00 0.00 0.00 83 1002.1
20260506022702 79 151 5.0 9.0 0.00 0.00 0.00 83 1002.0
20260506022603 79 165 4.0 9.0 0.00 0.00 0.00 83 1002.1
20260506022502 79 148 4.0 9.0 0.00 0.00 0.00 83 1002.0
20260506022403 79 142 3.0 9.0 0.00 0.00 0.00 83 1002.0
20260506022305 79 162 3.0 9.0 0.00 0.00 0.00 83 1002.0
20260506022203 79 168 3.0 9.0 0.00 0.00 0.00 83 1001.9
20260506022104 79 158 3.0 9.0 0.00 0.00 0.00 83 1001.9
20260506022003 79 164 4.0 9.0 0.00 0.00 0.00 83 1001.9
20260506021902 79 189 5.0 9.0 0.00 0.00 0.00 83 1001.9
20260506021803 79 154 4.0 9.0 0.00 0.00 0.00 83 1001.9
20260506021702 79 155 3.0 9.0 0.00 0.00 0.00 83 1001.9
20260506021604 79 158 4.0 9.0 0.00 0.00 0.00 83 1001.9
20260506021504 79 164 4.0 9.0 0.00 0.00 0.00 83 1001.8
20260506021403 79 135 3.0 9.0 0.00 0.00 0.00 83 1001.9
20260506021302 79 144 4.0 9.0 0.00 0.00 0.00 83 1001.9
20260506021204 79 155 4.0 10.0 0.00 0.00 0.00 83 1001.9
20260506021103 79 127 5.0 10.0 0.00 0.00 0.00 83 1002.0
20260506021005 79 127 4.0 10.0 0.00 0.00 0.00 83 1001.9
20260506020904 79 166 3.0 10.0 0.00 0.00 0.00 83 1001.9
20260506020802 79 180 4.0 10.0 0.00 0.00 0.00 82 1001.9
20260506020703 79 159 5.0 10.0 0.00 0.00 0.00 82 1001.8
20260506020603 79 165 5.0 10.0 0.00 0.00 0.00 82 1001.9
20260506020504 79 141 5.0 10.0 0.00 0.00 0.00 82 1001.8
20260506020402 79 151 5.0 10.0 0.00 0.00 0.00 82 1001.8
20260506020302 79 121 6.0 10.0 0.00 0.00 0.00 82 1001.8
20260506020204 79 158 6.0 10.0 0.00 0.00 0.00 82 1001.8
20260506020003 79 151 3.0 7.0 0.00 0.00 0.00 82 1001.8
20260506015901 79 148 3.0 7.0 0.00 0.00 0.00 82 1001.8
20260506015802 79 214 3.0 7.0 0.00 0.00 0.00 82 1001.8
20260506015703 79 138 3.0 7.0 0.00 0.00 0.00 82 1001.8
20260506015602 79 165 4.0 7.0 0.00 0.00 0.00 82 1001.8
20260506015504 79 151 3.0 7.0 0.00 0.00 0.00 82 1001.7
20260506015403 79 144 4.0 7.0 0.00 0.00 0.00 82 1001.8
20260506015305 79 148 4.0 7.0 0.00 0.00 0.00 82 1001.7
20260506015204 79 183 4.0 10.0 0.00 0.00 0.00 82 1001.7
20260506015103 79 138 4.0 10.0 0.00 0.00 0.00 82 1001.8
20260506015004 79 168 4.0 10.0 0.00 0.00 0.00 82 1001.7
20260506014902 79 155 4.0 10.0 0.00 0.00 0.00 82 1001.8
20260506014802 79 161 4.0 10.0 0.00 0.00 0.00 82 1001.7
20260506014703 79 159 3.0 10.0 0.00 0.00 0.00 82 1001.7
20260506014603 79 134 3.0 10.0 0.00 0.00 0.00 82 1001.6
20260506014502 79 152 3.0 10.0 0.00 0.00 0.00 82 1001.7
20260506014402 79 148 4.0 10.0 0.00 0.00 0.00 82 1001.7
20260506014303 79 135 5.0 9.0 0.00 0.00 0.00 81 1001.6
20260506014201 79 169 6.0 9.0 0.00 0.00 0.00 81 1001.6
20260506014103 79 151 5.0 9.0 0.00 0.00 0.00 81 1001.7
20260506014003 79 123 5.0 9.0 0.00 0.00 0.00 81 1001.5
20260506013903 79 134 4.0 9.0 0.00 0.00 0.00 81 1001.5
20260506013803 79 158 4.0 9.0 0.00 0.00 0.00 81 1001.5
20260506013703 79 118 3.0 7.0 0.00 0.00 0.00 81 1001.5
20260506013603 79 145 2.0 7.0 0.00 0.00 0.00 81 1001.5
20260506013503 79 159 3.0 7.0 0.00 0.00 0.00 81 1001.5
20260506013403 79 149 4.0 7.0 0.00 0.00 0.00 81 1001.4
20260506013303 79 159 4.0 7.0 0.00 0.00 0.00 81 1001.5
20260506013202 79 149 4.0 7.0 0.00 0.00 0.00 81 1001.4
20260506013102 79 147 4.0 7.0 0.00 0.00 0.00 81 1001.4
20260506013004 79 120 4.0 11.0 0.00 0.00 0.00 81 1001.4
20260506012903 79 142 3.0 11.0 0.00 0.00 0.00 81 1001.5
20260506012803 79 149 4.0 11.0 0.00 0.00 0.00 81 1001.5
20260506012702 79 135 4.0 11.0 0.00 0.00 0.00 81 1001.5
20260506012603 79 144 4.0 11.0 0.00 0.00 0.00 80 1001.4
20260506012504 80 142 3.0 11.0 0.00 0.00 0.00 80 1001.4
20260506012403 80 138 2.0 11.0 0.00 0.00 0.00 80 1001.4
20260506012307 80 161 3.0 11.0 0.00 0.00 0.00 80 1001.4
20260506012202 80 165 5.0 11.0 0.00 0.00 0.00 80 1001.2
20260506012104 80 152 6.0 11.0 0.00 0.00 0.00 80 1001.2
20260506012003 80 144 5.0 9.0 0.00 0.00 0.00 80 1001.2
20260506011903 80 147 4.0 6.0 0.00 0.00 0.00 80 1001.1
20260506011802 80 176 3.0 9.0 0.00 0.00 0.00 80 1001.1
20260506011704 80 202 3.0 10.0 0.00 0.00 0.00 80 1001.1
20260506011603 80 180 3.0 10.0 0.00 0.00 0.00 80 1001.1
20260506011502 80 142 3.0 10.0 0.00 0.00 0.00 80 1001.1
20260506011403 80 161 2.0 10.0 0.00 0.00 0.00 80 1001.1
20260506011303 80 161 2.0 10.0 0.00 0.00 0.00 80 1001.0
20260506011203 80 149 2.0 10.0 0.00 0.00 0.00 79 1001.1
20260506011105 80 131 2.0 10.0 0.00 0.00 0.00 79 1001.0
20260506011003 80 140 4.0 10.0 0.00 0.00 0.00 79 1001.0
20260506010903 80 173 5.0 10.0 0.00 0.00 0.00 79 1000.9
20260506010802 80 145 4.0 10.0 0.00 0.00 0.00 79 1001.0
20260506010704 80 148 3.0 9.0 0.00 0.00 0.00 79 1001.0
20260506010603 80 165 3.0 11.0 0.00 0.00 0.00 79 1001.0
20260506010501 80 193 4.0 11.0 0.00 0.00 0.00 79 1001.0
20260506010403 80 166 3.0 11.0 0.00 0.00 0.00 79 1000.9
20260506010303 80 166 3.0 11.0 0.00 0.00 0.00 79 1001.0
20260506010204 80 133 3.0 11.0 0.00 0.00 0.00 79 1000.9
20260506010004 80 152 4.0 11.0 0.00 0.00 0.00 79 1000.9
20260506005903 80 199 3.0 11.0 0.00 0.00 0.00 79 1000.9
20260506005802 80 164 4.0 11.0 0.00 0.00 0.00 79 1000.9
20260506005702 80 172 4.0 11.0 0.00 0.00 0.00 79 1000.9
20260506005604 80 164 4.0 9.0 0.00 0.00 0.00 79 1000.9
20260506005504 80 148 4.0 9.0 0.00 0.00 0.00 79 1000.9
20260506005404 80 157 4.0 9.0 0.00 0.00 0.00 79 1000.9
20260506005305 80 165 5.0 9.0 0.00 0.00 0.00 79 1000.9
20260506005203 80 182 6.0 9.0 0.00 0.00 0.00 79 1000.9
20260506005104 80 196 4.0 9.0 0.00 0.00 0.00 79 1000.9
20260506005004 80 233 4.0 9.0 0.00 0.00 0.00 79 1000.9
20260506004903 80 152 3.0 9.0 0.00 0.00 0.00 79 1000.9
20260506004805 80 157 4.0 9.0 0.00 0.00 0.00 79 1000.9
20260506004705 80 176 4.0 9.0 0.00 0.00 0.00 79 1000.8
20260506004604 80 152 5.0 9.0 0.00 0.00 0.00 79 1000.8
20260506004504 80 169 5.0 9.0 0.00 0.00 0.00 79 1000.8
20260506004402 80 121 4.0 9.0 0.00 0.00 0.00 79 1000.9
20260506004304 80 161 3.0 10.0 0.00 0.00 0.00 79 1000.9
20260506004203 80 138 2.0 10.0 0.00 0.00 0.00 79 1000.8
20260506004102 80 152 2.0 10.0 0.00 0.00 0.00 79 1000.8
20260506004004 80 144 3.0 10.0 0.00 0.00 0.00 79 1000.9
20260506003903 80 159 4.0 10.0 0.00 0.00 0.00 79 1000.8
20260506003802 80 188 4.0 10.0 0.00 0.00 0.00 79 1000.8
20260506003703 80 141 5.0 10.0 0.00 0.00 0.00 78 1000.9
20260506003604 80 137 4.0 10.0 0.00 0.00 0.00 78 1000.8
20260506003503 80 158 4.0 10.0 0.00 0.00 0.00 79 1000.9
20260506003402 80 173 5.0 10.0 0.00 0.00 0.00 79 1000.9
20260506003303 80 164 4.0 10.0 0.00 0.00 0.00 78 1000.9
20260506003203 80 151 4.0 10.0 0.00 0.00 0.00 78 1001.0
20260506003103 80 152 5.0 10.0 0.00 0.00 0.00 78 1000.8
20260506003003 80 158 5.0 10.0 0.00 0.00 0.00 78 1000.8
20260506002902 80 207 5.0 10.0 0.00 0.00 0.00 78 1000.9
20260506002805 80 144 4.0 10.0 0.00 0.00 0.00 78 1000.9
20260506002702 80 228 5.0 10.0 0.00 0.00 0.00 78 1000.8
20260506002604 80 161 6.0 10.0 0.00 0.00 0.00 78 1000.7
20260506002504 80 141 5.0 10.0 0.00 0.00 0.00 78 1000.7
20260506002402 80 151 5.0 10.0 0.00 0.00 0.00 78 1000.7
20260506002306 80 157 4.0 10.0 0.00 0.00 0.00 78 1000.6
20260506002203 80 188 3.0 10.0 0.00 0.00 0.00 78 1000.7
20260506002103 80 130 3.0 10.0 0.00 0.00 0.00 78 1000.6
20260506002003 80 137 3.0 10.0 0.00 0.00 0.00 78 1000.7
20260506001903 80 165 4.0 10.0 0.00 0.00 0.00 78 1000.6
20260506001804 80 148 5.0 10.0 0.00 0.00 0.00 78 1000.6
20260506001704 80 171 5.0 7.0 0.00 0.00 0.00 78 1000.6
20260506001602 81 147 5.0 7.0 0.00 0.00 0.00 78 1000.6
20260506001503 81 142 4.0 10.0 0.00 0.00 0.00 78 1000.5
20260506001403 81 151 2.0 10.0 0.00 0.00 0.00 78 1000.7
20260506001303 81 131 3.0 10.0 0.00 0.00 0.00 78 1000.7
20260506001203 81 173 3.0 10.0 0.00 0.00 0.00 78 1000.7
20260506001104 81 131 3.0 10.0 0.00 0.00 0.00 78 1000.7
20260506001002 81 148 4.0 10.0 0.00 0.00 0.00 78 1000.6
20260506000903 81 171 5.0 13.0 0.00 0.00 0.00 78 1000.6
20260506000802 81 158 5.0 13.0 0.00 0.00 0.00 78 1000.7
20260506000702 81 179 5.0 13.0 0.00 0.00 0.00 78 1000.7
20260506000602 81 151 4.0 13.0 0.00 0.00 0.00 78 1000.8
20260506000503 81 145 4.0 13.0 0.00 0.00 0.00 78 1000.8
20260506000402 81 186 4.0 13.0 0.00 0.00 0.00 78 1000.8
20260506000302 81 158 4.0 13.0 0.00 0.00 0.00 78 1000.8
20260506000204 81 176 4.0 13.0 0.00 0.00 0.00 78 1000.8
20260506000104 81 140 4.0 13.0 0.00 0.00 0.00 78 1000.8
20260506000004 81 116 4.0 13.0 0.00 0.00 0.00 78 1000.7
20260505235903 81 157 3.0 11.0 0.00 0.00 0.00 78 1000.7
20260505235802 81 145 4.0 11.0 0.00 0.00 0.00 78 1000.8
20260505235703 81 164 4.0 11.0 0.00 0.00 0.00 78 1000.7
20260505235602 81 149 4.0 11.0 0.00 0.00 0.00 78 1000.8
20260505235504 81 141 4.0 11.0 0.00 0.00 0.00 78 1000.7
20260505235403 81 152 4.0 11.0 0.00 0.00 0.00 78 1000.7
20260505235304 81 145 5.0 11.0 0.00 0.00 0.00 78 1000.7
20260505235203 81 165 5.0 11.0 0.00 0.00 0.00 78 1000.6
20260505235102 81 152 6.0 12.0 0.00 0.00 0.00 78 1000.7
20260505235004 81 116 6.0 12.0 0.00 0.00 0.00 78 1000.7
20260505234903 81 113 4.0 12.0 0.00 0.00 0.00 78 1000.7
20260505234803 81 131 3.0 12.0 0.00 0.00 0.00 78 1000.7
20260505234703 81 155 3.0 12.0 0.00 0.00 0.00 78 1000.7
20260505234603 81 148 3.0 12.0 0.00 0.00 0.00 78 1000.6
20260505234505 81 120 4.0 12.0 0.00 0.00 0.00 78 1000.6
20260505234403 81 183 6.0 12.0 0.00 0.00 0.00 78 1000.6
20260505234304 81 159 6.0 12.0 0.00 0.00 0.00 78 1000.7
20260505234202 81 162 5.0 12.0 0.00 0.00 0.00 78 1000.6
20260505234103 81 142 4.0 12.0 0.00 0.00 0.00 78 1000.6
20260505234004 81 144 4.0 12.0 0.00 0.00 0.00 78 1000.6
20260505233903 81 162 4.0 12.0 0.00 0.00 0.00 77 1000.6
20260505233803 81 171 4.0 12.0 0.00 0.00 0.00 77 1000.7
20260505233703 81 152 4.0 12.0 0.00 0.00 0.00 77 1000.6
20260505233602 81 158 4.0 12.0 0.00 0.00 0.00 77 1000.7
20260505233504 81 206 4.0 12.0 0.00 0.00 0.00 77 1000.6
20260505233403 81 125 4.0 12.0 0.00 0.00 0.00 77 1000.6
20260505233302 81 155 4.0 12.0 0.00 0.00 0.00 77 1000.6
20260505233204 81 162 4.0 10.0 0.00 0.00 0.00 77 1000.6
20260505233104 82 192 4.0 10.0 0.00 0.00 0.00 77 1000.5
20260505233003 82 183 3.0 10.0 0.00 0.00 0.00 77 1000.6
20260505232902 81 171 3.0 10.0 0.00 0.00 0.00 77 1000.6
20260505232804 81 158 5.0 10.0 0.00 0.00 0.00 77 1000.6
20260505232703 81 152 5.0 10.0 0.00 0.00 0.00 77 1000.6
20260505232602 81 162 4.0 10.0 0.00 0.00 0.00 77 1000.6
20260505232504 81 186 4.0 10.0 0.00 0.00 0.00 77 1000.6
20260505232404 81 159 5.0 10.0 0.00 0.00 0.00 77 1000.6
20260505232305 81 142 5.0 10.0 0.00 0.00 0.00 77 1000.6
20260505232203 82 111 4.0 10.0 0.00 0.00 0.00 78 1000.6
20260505232104 82 159 4.0 9.0 0.00 0.00 0.00 78 1000.6
20260505232003 82 159 4.0 9.0 0.00 0.00 0.00 78 1000.6
20260505231903 82 141 4.0 9.0 0.00 0.00 0.00 78 1000.6
20260505231803 82 145 3.0 9.0 0.00 0.00 0.00 78 1000.6
20260505231702 82 176 4.0 9.0 0.00 0.00 0.00 78 1000.6
20260505231604 82 183 4.0 9.0 0.00 0.00 0.00 78 1000.7
20260505231503 82 148 4.0 9.0 0.00 0.00 0.00 77 1000.6
20260505231402 82 158 4.0 9.0 0.00 0.00 0.00 77 1000.6
20260505231303 82 202 4.0 9.0 0.00 0.00 0.00 77 1000.6
20260505231202 82 162 5.0 9.0 0.00 0.00 0.00 77 1000.6
20260505231104 82 179 5.0 10.0 0.00 0.00 0.00 77 1000.6
20260505231002 82 158 5.0 13.0 0.00 0.00 0.00 77 1000.5
20260505230902 82 151 5.0 13.0 0.00 0.00 0.00 77 1000.5
20260505230803 82 192 5.0 13.0 0.00 0.00 0.00 78 1000.6
20260505230703 82 149 4.0 13.0 0.00 0.00 0.00 78 1000.5
20260505230602 82 144 4.0 13.0 0.00 0.00 0.00 78 1000.5
20260505230503 82 149 4.0 13.0 0.00 0.00 0.00 78 1000.6
20260505230402 82 180 3.0 13.0 0.00 0.00 0.00 78 1000.6
20260505230303 82 164 5.0 13.0 0.00 0.00 0.00 77 1000.6
20260505230202 82 193 6.0 13.0 0.00 0.00 0.00 77 1000.6
20260505230005 82 159 4.0 11.0 0.00 0.00 0.00 77 1000.6
20260505225903 82 120 3.0 11.0 0.00 0.00 0.00 77 1000.7
20260505225801 82 164 3.0 11.0 0.00 0.00 0.00 77 1000.7
20260505225703 82 185 3.0 11.0 0.00 0.00 0.00 77 1000.7
20260505225603 82 176 4.0 11.0 0.00 0.00 0.00 77 1000.7
20260505225503 82 166 4.0 11.0 0.00 0.00 0.00 77 1000.6
20260505225404 82 165 3.0 11.0 0.00 0.00 0.00 77 1000.6
20260505225305 82 118 4.0 11.0 0.00 0.00 0.00 77 1000.6
20260505225204 82 120 6.0 11.0 0.00 0.00 0.00 77 1000.6
20260505225103 82 96 6.0 11.0 0.00 0.00 0.00 77 1000.5
20260505225003 82 137 6.0 10.0 0.00 0.00 0.00 77 1000.6
20260505224903 82 145 6.0 10.0 0.00 0.00 0.00 77 1000.6
20260505224804 82 120 5.0 10.0 0.00 0.00 0.00 77 1000.6
20260505224704 82 142 5.0 10.0 0.00 0.00 0.00 77 1000.6
20260505224602 82 155 6.0 10.0 0.00 0.00 0.00 77 1000.6
20260505224504 82 210 6.0 10.0 0.00 0.00 0.00 77 1000.5
20260505224403 82 123 5.0 10.0 0.00 0.00 0.00 77 1000.7
20260505224303 82 137 5.0 10.0 0.00 0.00 0.00 77 1000.7
20260505224202 82 148 5.0 10.0 0.00 0.00 0.00 77 1000.7
20260505224102 82 127 4.0 10.0 0.00 0.00 0.00 77 1000.6
20260505224005 82 131 4.0 10.0 0.00 0.00 0.00 77 1000.6
20260505223903 82 199 6.0 10.0 0.00 0.00 0.00 77 1000.7
20260505223803 82 111 6.0 10.0 0.00 0.00 0.00 77 1000.6
20260505223703 82 118 5.0 10.0 0.00 0.00 0.00 77 1000.7
20260505223604 83 175 4.0 7.0 0.00 0.00 0.00 77 1000.6
20260505223502 83 109 4.0 7.0 0.00 0.00 0.00 77 1000.6
20260505223403 83 164 3.0 11.0 0.00 0.00 0.00 77 1000.6
20260505223303 83 203 4.0 11.0 0.00 0.00 0.00 76 1000.6
20260505223202 83 128 4.0 11.0 0.00 0.00 0.00 77 1000.7
20260505223103 82 147 4.0 11.0 0.00 0.00 0.00 76 1000.7
20260505223003 83 117 4.0 11.0 0.00 0.00 0.00 76 1000.7
20260505222904 83 196 4.0 11.0 0.00 0.00 0.00 76 1000.7
20260505222801 83 175 4.0 11.0 0.00 0.00 0.00 76 1000.7
20260505222704 83 164 4.0 11.0 0.00 0.00 0.00 75 1000.6
20260505222602 83 157 5.0 11.0 0.00 0.00 0.00 75 1000.7
20260505222503 83 135 6.0 11.0 0.00 0.00 0.00 75 1000.7
20260505222402 83 172 5.0 11.0 0.00 0.00 0.00 76 1000.6
20260505222305 83 166 5.0 10.0 0.00 0.00 0.00 76 1000.6
20260505222203 83 179 4.0 10.0 0.00 0.00 0.00 76 1000.7
20260505222103 83 172 3.0 10.0 0.00 0.00 0.00 76 1000.7
20260505222002 83 226 3.0 10.0 0.00 0.00 0.00 76 1000.7
20260505221902 83 155 4.0 10.0 0.00 0.00 0.00 75 1000.8
20260505221803 83 189 4.0 10.0 0.00 0.00 0.00 75 1000.7
20260505221703 83 125 5.0 13.0 0.00 0.00 0.00 75 1000.7
20260505221603 83 145 6.0 13.0 0.00 0.00 0.00 75 1000.7
20260505221504 83 137 5.0 13.0 0.00 0.00 0.00 75 1000.6
20260505221403 83 161 6.0 13.0 0.00 0.00 0.00 75 1000.7
20260505221304 83 147 5.0 13.0 0.00 0.00 0.00 75 1000.8
20260505221202 83 147 4.0 13.0 0.00 0.00 0.00 75 1000.8
20260505221103 83 140 3.0 13.0 0.00 0.00 0.00 75 1000.8
20260505221003 83 165 4.0 13.0 0.00 0.00 0.00 75 1000.8
20260505220903 83 128 6.0 13.0 0.00 0.00 0.00 75 1000.8
20260505220803 83 144 6.0 13.0 0.00 0.00 0.00 75 1000.8
20260505220702 83 145 4.0 9.0 0.00 0.00 0.00 76 1000.8
20260505220604 83 138 2.0 9.0 0.00 0.00 0.00 76 1000.8
20260505220502 83 200 3.0 12.0 0.00 0.00 0.00 75 1000.8
20260505220404 83 189 6.0 12.0 0.00 0.00 0.00 75 1000.8
20260505220304 83 200 6.0 12.0 0.00 0.00 0.00 75 1000.8
20260505220203 83 164 5.0 12.0 0.00 0.00 0.00 75 1000.8
20260505220001 83 176 4.0 12.0 0.00 0.00 0.00 75 1000.8
20260505215903 83 157 4.0 12.0 0.00 0.00 0.00 75 1000.8
20260505215804 83 220 5.0 12.0 0.00 0.00 0.00 75 1000.9
20260505215703 83 178 4.0 12.0 0.00 0.00 0.00 75 1000.9
20260505215602 83 125 4.0 12.0 0.00 0.00 0.00 75 1000.9
20260505215502 83 142 4.0 9.0 0.00 0.00 0.00 75 1001.0
20260505215403 83 202 4.0 13.0 0.00 0.00 0.00 75 1001.0
20260505215305 83 168 4.0 13.0 0.00 0.00 0.00 75 1001.0
20260505215203 83 155 4.0 13.0 0.00 0.00 0.00 75 1001.0
20260505215103 83 196 5.0 13.0 0.00 0.00 0.00 75 1001.0
20260505215002 83 178 4.0 13.0 0.00 0.00 0.00 75 1001.0
20260505214904 83 172 4.0 13.0 0.00 0.00 0.00 75 1001.1
20260505214802 83 188 5.0 13.0 0.00 0.00 0.00 74 1001.1
20260505214703 83 179 6.0 13.0 0.00 0.00 0.00 74 1001.0
20260505214604 83 176 6.0 13.0 0.00 0.00 0.00 74 1001.0
20260505214502 83 183 5.0 13.0 0.00 0.00 0.00 75 1001.0
20260505214403 83 262 4.0 11.0 0.00 0.00 0.00 75 1001.1
20260505214303 83 175 4.0 11.0 0.00 0.00 0.00 74 1001.0
20260505214204 83 176 4.0 11.0 0.00 0.00 0.00 74 1001.1
20260505214101 83 199 6.0 11.0 0.00 0.00 0.00 74 1001.1
20260505214004 83 138 6.0 12.0 0.00 0.00 0.00 74 1001.1
20260505213904 83 161 6.0 12.0 0.00 0.00 0.00 74 1001.1
20260505213803 83 209 5.0 12.0 0.00 0.00 0.00 74 1001.1
20260505213702 83 158 7.0 12.0 0.00 0.00 0.00 74 1001.1
20260505213603 83 217 7.0 12.0 0.00 0.00 0.00 74 1001.1
20260505213505 83 183 7.0 12.0 0.00 0.00 0.00 74 1001.2
20260505213403 83 152 7.0 12.0 0.00 0.00 0.00 74 1001.2
20260505213302 83 210 6.0 12.0 0.00 0.00 0.00 74 1001.2
20260505213201 83 183 6.0 16.0 0.00 0.00 0.00 74 1001.2
20260505213101 83 158 7.0 16.0 0.00 0.00 0.00 74 1001.1
20260505213002 83 175 6.0 16.0 0.00 0.00 0.00 74 1001.2
20260505212904 83 172 5.0 16.0 0.00 0.00 0.00 74 1001.3
20260505212802 83 149 5.0 16.0 0.00 0.00 0.00 74 1001.2
20260505212703 83 142 4.0 16.0 0.00 0.00 0.00 74 1001.2
20260505212602 83 196 5.0 16.0 0.00 0.00 0.00 74 1001.3
20260505212504 83 142 6.0 16.0 0.00 0.00 0.00 75 1001.3
20260505212402 83 169 6.0 16.0 0.00 0.00 0.00 75 1001.3
20260505212305 83 135 6.0 16.0 0.00 0.00 0.00 75 1001.3
20260505212202 83 169 4.0 10.0 0.00 0.00 0.00 75 1001.2
20260505212103 83 190 5.0 10.0 0.00 0.00 0.00 75 1001.3
20260505212004 83 121 3.0 12.0 0.00 0.00 0.00 76 1001.3
20260505211904 83 125 3.0 12.0 0.00 0.00 0.00 76 1001.3
20260505211804 83 176 3.0 12.0 0.00 0.00 0.00 76 1001.4
20260505211702 83 169 3.0 12.0 0.00 0.00 0.00 75 1001.3
20260505211603 83 189 4.0 12.0 0.00 0.00 0.00 75 1001.3
20260505211505 83 188 4.0 12.0 0.00 0.00 0.00 75 1001.3
20260505211404 83 186 4.0 12.0 0.00 0.00 0.00 75 1001.3
20260505211304 83 180 5.0 12.0 0.00 0.00 0.00 75 1001.4
20260505211202 83 158 6.0 12.0 0.00 0.00 0.00 75 1001.4
20260505211102 83 210 7.0 12.0 0.00 0.00 0.00 75 1001.4
20260505211004 83 190 6.0 13.0 0.00 0.00 0.00 75 1001.4
20260505210904 83 135 7.0 13.0 0.00 0.00 0.00 75 1001.4
20260505210803 83 210 6.0 13.0 0.00 0.00 0.00 76 1001.6
20260505210702 83 175 4.0 14.0 0.00 0.00 0.00 76 1001.5
20260505210602 83 171 4.0 14.0 0.00 0.00 0.00 75 1001.5
20260505210504 83 196 5.0 14.0 0.00 0.00 0.00 75 1001.5
20260505210404 83 203 3.0 14.0 0.00 0.00 0.00 75 1001.6
20260505210303 83 159 4.0 14.0 0.00 0.00 0.00 75 1001.6
20260505210202 83 151 6.0 14.0 0.00 0.00 0.00 75 1001.5
20260505210003 83 193 6.0 14.0 0.00 0.00 0.00 75 1001.6
20260505205904 83 220 7.0 14.0 0.00 0.00 0.00 75 1001.6
20260505205805 84 179 6.0 14.0 0.00 0.00 0.00 75 1001.5
20260505205704 83 147 4.0 10.0 0.00 0.00 0.00 76 1001.5
20260505205602 83 154 3.0 10.0 0.00 0.00 0.00 76 1001.5
20260505205503 83 124 4.0 10.0 0.00 0.00 0.00 75 1001.5
20260505205403 83 192 4.0 10.0 0.00 0.00 0.00 75 1001.6
20260505205305 83 166 5.0 10.0 0.00 0.00 0.00 75 1001.6
20260505205204 83 192 5.0 10.0 0.00 0.00 0.00 76 1001.6
20260505205102 83 140 4.0 9.0 0.00 0.00 0.00 76 1001.6
20260505205002 83 145 4.0 7.0 0.00 0.00 0.00 76 1001.7
20260505204904 83 192 5.0 7.0 0.00 0.00 0.00 76 1001.8
20260505204804 83 188 4.0 7.0 0.00 0.00 0.00 75 1001.7
20260505204704 83 166 4.0 7.0 0.00 0.00 0.00 75 1001.7
20260505204603 83 152 4.0 7.0 0.00 0.00 0.00 75 1001.7
20260505204504 83 164 4.0 7.0 0.00 0.00 0.00 75 1001.7
20260505204403 83 179 4.0 9.0 0.00 0.00 0.00 76 1001.8
20260505204303 83 161 4.0 9.0 0.00 0.00 0.00 76 1001.7
20260505204203 83 155 4.0 9.0 0.00 0.00 0.00 76 1001.7
20260505204104 83 144 4.0 12.0 0.00 0.00 0.00 76 1001.8
20260505204003 83 158 3.0 12.0 0.00 0.00 0.00 75 1001.9
20260505203902 83 180 2.0 12.0 0.00 0.00 0.00 76 1001.9
20260505203802 83 148 2.0 12.0 0.00 0.00 0.00 75 1001.9
20260505203703 83 209 5.0 12.0 0.00 0.00 0.00 75 1001.9
20260505203604 83 209 5.0 12.0 0.00 0.00 0.00 75 1001.9
20260505203505 83 176 5.0 12.0 0.00 0.00 0.00 75 1002.0
20260505203404 83 193 5.0 12.0 0.00 0.00 0.00 75 1001.9
20260505203302 83 145 5.0 12.0 0.00 0.00 0.00 75 1001.9
20260505203204 83 179 5.0 12.0 0.00 0.00 0.00 75 1001.9
20260505203103 83 168 5.0 12.0 0.00 0.00 0.00 75 1002.0
20260505203002 83 171 5.0 12.0 0.00 0.00 0.00 75 1002.0
20260505202903 83 165 5.0 12.0 0.00 0.00 0.00 75 1001.9
20260505202802 83 176 6.0 12.0 0.00 0.00 0.00 75 1002.0
20260505202703 83 192 6.0 12.0 0.00 0.00 0.00 75 1002.0
20260505202602 83 149 7.0 12.0 0.00 0.00 0.00 75 1001.8
20260505202504 83 185 6.0 11.0 0.00 0.00 0.00 75 1002.0
20260505202402 83 207 6.0 11.0 0.00 0.00 0.00 75 1002.0
20260505202306 83 155 6.0 11.0 0.00 0.00 0.00 75 1002.0
20260505202203 83 178 6.0 11.0 0.00 0.00 0.00 75 1002.1
20260505202103 83 195 6.0 11.0 0.00 0.00 0.00 75 1002.2
20260505202004 83 178 4.0 11.0 0.00 0.00 0.00 75 1002.2
20260505201902 83 173 4.0 11.0 0.00 0.00 0.00 75 1002.3
20260505201804 83 159 5.0 11.0 0.00 0.00 0.00 75 1002.2
20260505201703 83 196 4.0 11.0 0.00 0.00 0.00 75 1002.2
20260505201601 83 182 4.0 11.0 0.00 0.00 0.00 75 1002.2
20260505201503 83 176 5.0 11.0 0.00 0.00 0.00 75 1002.2
20260505201402 83 257 4.0 11.0 0.00 0.00 0.00 75 1002.2
20260505201304 83 148 6.0 11.0 0.00 0.00 0.00 75 1002.2
20260505201204 83 183 6.0 11.0 0.00 0.00 0.00 75 1002.2
20260505201103 83 128 6.0 11.0 0.00 0.00 0.00 75 1002.3
20260505201004 83 199 6.0 11.0 0.00 0.00 0.00 75 1002.2
20260505200902 83 206 4.0 11.0 0.00 0.00 0.00 75 1002.3
20260505200803 83 162 5.0 11.0 0.00 0.00 0.00 75 1002.3
20260505200703 83 217 5.0 11.0 0.00 0.00 0.00 75 1002.4
20260505200602 83 189 6.0 11.0 0.00 0.00 0.00 75 1002.4
20260505200503 83 202 6.0 11.0 0.00 0.00 0.00 76 1002.4
20260505200402 83 186 5.0 11.0 0.00 0.00 0.00 76 1002.4
20260505200303 83 241 6.0 11.0 0.00 0.00 0.00 75 1002.4
20260505200202 83 178 6.0 11.0 0.00 0.00 0.00 75 1002.4
20260505200104 83 162 5.0 10.0 0.00 0.00 0.00 76 1002.4
20260505200004 83 185 5.0 10.0 0.00 0.00 0.00 76 1002.4
20260505195902 83 182 5.0 10.0 0.00 0.00 0.00 77 1002.5
20260505195803 83 178 5.0 9.0 0.00 0.00 0.00 77 1002.4
20260505195702 83 207 5.0 10.0 0.00 0.00 0.00 77 1002.4
20260505195603 82 186 5.0 10.0 0.00 0.00 0.00 77 1002.4
20260505195502 82 206 5.0 10.0 0.00 0.00 0.00 76 1002.4
20260505195404 83 216 5.0 10.0 0.00 0.00 0.00 76 1002.4
20260505195305 83 212 6.0 10.0 0.00 0.00 0.00 76 1002.4
20260505195202 83 157 5.0 10.0 0.00 0.00 0.00 76 1002.4
20260505195102 83 169 5.0 13.0 0.00 0.00 0.00 77 1002.4
20260505195004 83 200 5.0 13.0 0.00 0.00 0.00 77 1002.4
20260505194902 83 192 4.0 13.0 0.00 0.00 0.00 77 1002.5
20260505194803 82 206 5.0 13.0 0.00 0.00 0.00 76 1002.4
20260505194703 82 220 4.0 13.0 0.00 0.00 0.00 77 1002.5
20260505194604 82 166 5.0 13.0 0.00 0.00 0.00 77 1002.5
20260505194502 82 178 5.0 13.0 0.00 0.00 0.00 77 1002.6
20260505194403 82 180 6.0 13.0 0.00 0.00 0.00 77 1002.6
20260505194303 82 189 7.0 13.0 0.00 0.00 0.00 77 1002.5
20260505194203 82 178 7.0 13.0 0.00 0.00 0.00 77 1002.6
20260505194104 82 104 4.0 13.0 0.00 0.00 0.00 77 1002.7
20260505194002 82 165 6.0 13.0 0.00 0.00 0.00 77 1002.6
20260505193902 82 182 6.0 13.0 0.00 0.00 0.00 77 1002.6
20260505193803 82 162 6.0 13.0 0.00 0.00 0.00 77 1002.6
20260505193703 82 149 5.0 13.0 0.00 0.00 0.00 77 1002.7
20260505193603 82 140 5.0 13.0 0.00 0.00 0.00 77 1002.7
20260505193503 82 210 5.0 11.0 0.00 0.00 0.00 77 1002.7
20260505193403 82 226 5.0 11.0 0.00 0.00 0.00 77 1002.6
20260505193303 82 182 4.0 7.0 0.00 0.00 0.00 77 1002.7
20260505193203 82 197 4.0 10.0 0.00 0.00 0.00 77 1002.6
20260505193103 82 212 4.0 10.0 0.00 0.00 0.00 77 1002.6
20260505193002 82 251 4.0 10.0 0.00 0.00 0.00 77 1002.7
20260505192902 82 157 4.0 10.0 0.00 0.00 0.00 77 1002.6
20260505192804 82 155 4.0 10.0 0.00 0.00 0.00 77 1002.6
20260505192703 82 186 4.0 10.0 0.00 0.00 0.00 77 1002.7
20260505192603 82 144 4.0 10.0 0.00 0.00 0.00 77 1002.7
20260505192502 82 173 4.0 10.0 0.00 0.00 0.00 77 1002.7
20260505192403 82 158 5.0 10.0 0.00 0.00 0.00 76 1002.7
20260505192305 82 178 6.0 10.0 0.00 0.00 0.00 76 1002.7
20260505192203 82 206 6.0 9.0 0.00 0.00 0.00 76 1002.8
20260505192102 82 166 5.0 9.0 0.00 0.00 0.00 77 1002.7
20260505192005 82 185 4.0 9.0 0.00 0.00 0.00 77 1002.7
20260505191903 83 147 4.0 7.0 0.00 0.00 0.00 76 1002.7
20260505191801 83 147 5.0 7.0 0.00 0.00 0.00 76 1002.8
20260505191704 83 176 5.0 7.0 0.00 0.00 0.00 77 1002.7
20260505191602 83 183 4.0 7.0 0.00 0.00 0.00 78 1002.8
20260505191503 82 154 3.0 6.0 0.00 0.00 0.00 78 1002.8
20260505191404 82 168 2.0 10.0 0.00 0.00 0.00 78 1002.7
20260505191302 82 175 2.0 10.0 0.00 0.00 0.00 78 1002.7
20260505191202 82 207 2.0 10.0 0.00 0.00 0.00 77 1002.8
20260505191103 82 207 4.0 10.0 0.00 0.00 0.00 77 1002.8
20260505191005 82 233 4.0 11.0 0.00 0.00 0.00 77 1002.8
20260505190903 82 172 4.0 11.0 0.00 0.00 0.00 77 1002.8
20260505190801 82 214 4.0 11.0 0.00 0.00 0.00 77 1002.8
20260505190702 82 158 4.0 11.0 0.00 0.00 0.00 77 1002.8
20260505190604 82 179 5.0 11.0 0.00 0.00 0.00 76 1002.8
20260505190505 82 207 6.0 11.0 0.00 0.00 0.00 76 1002.8
20260505190403 82 212 5.0 11.0 0.00 0.00 0.00 77 1002.8
20260505190302 82 188 5.0 11.0 0.00 0.00 0.00 76 1002.8
20260505190204 82 199 5.0 11.0 0.00 0.00 0.00 76 1002.8
20260505190104 82 162 5.0 11.0 0.00 0.00 0.00 77 1002.8
20260505190005 82 185 4.0 10.0 0.00 0.00 0.00 77 1002.8
20260505185902 82 164 3.0 10.0 0.00 0.00 0.00 77 1002.7
20260505185802 82 186 5.0 10.0 0.00 0.00 0.00 77 1002.7
20260505185703 82 234 3.0 10.0 0.00 0.00 0.00 77 1002.7
20260505185603 82 162 4.0 10.0 0.00 0.00 0.00 77 1002.7
20260505185504 82 154 5.0 10.0 0.00 0.00 0.00 77 1002.8
20260505185402 82 185 5.0 10.0 0.00 0.00 0.00 77 1002.8
20260505185305 82 220 3.0 10.0 0.00 0.00 0.00 78 1002.7
20260505185201 82 135 2.0 10.0 0.00 0.00 0.00 78 1002.8
20260505185103 82 175 3.0 10.0 0.00 0.00 0.00 77 1002.8
20260505185004 81 175 4.0 13.0 0.00 0.00 0.00 77 1002.8
20260505184902 81 186 4.0 13.0 0.00 0.00 0.00 77 1002.8
20260505184803 81 214 4.0 13.0 0.00 0.00 0.00 77 1002.8
20260505184703 81 196 4.0 13.0 0.00 0.00 0.00 77 1002.8
20260505184603 81 173 5.0 13.0 0.00 0.00 0.00 77 1003.0
20260505184503 81 217 4.0 13.0 0.00 0.00 0.00 77 1002.9
20260505184403 81 228 5.0 13.0 0.00 0.00 0.00 77 1002.9
20260505184303 81 152 5.0 13.0 0.00 0.00 0.00 77 1002.9
20260505184202 81 207 5.0 13.0 0.00 0.00 0.00 77 1002.9
20260505184104 81 164 6.0 13.0 0.00 0.00 0.00 77 1002.9
20260505184004 81 196 6.0 11.0 0.00 0.00 0.00 77 1002.9
20260505183903 81 192 4.0 11.0 0.00 0.00 0.00 77 1003.0
20260505183805 81 193 4.0 10.0 0.00 0.00 0.00 78 1002.9
20260505183702 81 193 4.0 10.0 0.00 0.00 0.00 78 1003.1
20260505183603 81 165 4.0 10.0 0.00 0.00 0.00 78 1002.9
20260505183504 81 203 4.0 10.0 0.00 0.00 0.00 78 1002.9
20260505183403 81 217 4.0 10.0 0.00 0.00 0.00 78 1003.0
20260505183303 81 185 4.0 10.0 0.00 0.00 0.00 77 1003.0
20260505183202 81 166 5.0 10.0 0.00 0.00 0.00 78 1002.9
20260505183103 81 206 4.0 10.0 0.00 0.00 0.00 78 1003.0
20260505183004 81 151 3.0 9.0 0.00 0.00 0.00 78 1002.9
20260505182902 81 166 2.0 6.0 0.00 0.00 0.00 78 1003.0
20260505182804 81 188 3.0 6.0 0.00 0.00 0.00 78 1003.0
20260505182703 82 166 4.0 6.0 0.00 0.00 0.00 77 1002.9
20260505182604 82 186 4.0 9.0 0.00 0.00 0.00 78 1003.1
20260505182503 81 196 4.0 9.0 0.00 0.00 0.00 78 1003.1
20260505182402 81 165 4.0 9.0 0.00 0.00 0.00 78 1003.0
20260505182306 81 148 4.0 9.0 0.00 0.00 0.00 79 1003.0
20260505182202 81 202 4.0 9.0 0.00 0.00 0.00 79 1003.1
20260505182103 81 182 3.0 9.0 0.00 0.00 0.00 79 1003.1
20260505182004 81 161 2.0 9.0 0.00 0.00 0.00 79 1003.0
20260505181903 81 186 2.0 9.0 0.00 0.00 0.00 79 1003.1
20260505181802 81 193 3.0 9.0 0.00 0.00 0.00 79 1003.1
20260505181702 80 217 4.0 9.0 0.00 0.00 0.00 79 1003.1
20260505181602 80 207 4.0 9.0 0.00 0.00 0.00 79 1003.1
20260505181503 80 127 5.0 9.0 0.00 0.00 0.00 79 1003.1
20260505181403 80 185 6.0 9.0 0.00 0.00 0.00 79 1003.1
20260505181302 80 179 6.0 9.0 0.00 0.00 0.00 79 1003.1
20260505181203 80 216 5.0 9.0 0.00 0.00 0.00 79 1003.2
20260505181102 81 180 6.0 17.0 0.00 0.00 0.00 78 1003.3
20260505181006 81 166 6.0 17.0 0.00 0.00 0.00 78 1003.2
20260505180903 81 168 5.0 17.0 0.00 0.00 0.00 79 1003.2
20260505180802 81 178 5.0 17.0 0.00 0.00 0.00 79 1003.2
20260505180702 81 213 4.0 17.0 0.00 0.00 0.00 79 1003.3
20260505180603 81 197 4.0 17.0 0.00 0.00 0.00 79 1003.2
20260505180503 81 188 5.0 17.0 0.00 0.00 0.00 79 1003.2
20260505180403 81 189 5.0 17.0 0.00 0.00 0.00 79 1003.2
20260505180304 81 209 6.0 17.0 0.00 0.00 0.00 79 1003.2
20260505180204 81 196 5.0 17.0 0.00 0.00 0.00 79 1003.3
20260505180005 80 155 2.0 7.0 0.00 0.00 0.00 80 1003.3
20260505175902 80 155 3.0 7.0 0.00 0.00 0.00 80 1003.3
20260505175803 80 157 4.0 9.0 0.00 0.00 0.00 80 1003.4
20260505175702 80 185 4.0 9.0 0.00 0.00 0.00 80 1003.3
20260505175602 80 188 4.0 9.0 0.00 0.00 0.00 80 1003.4
20260505175505 80 176 3.0 9.0 0.00 0.00 0.00 80 1003.4
20260505175403 80 179 4.0 9.0 0.00 0.00 0.00 80 1003.4
20260505175305 80 186 4.0 10.0 0.00 0.00 0.00 80 1003.4
20260505175202 80 186 3.0 10.0 0.00 0.00 0.00 80 1003.4
20260505175102 80 179 3.0 10.0 0.00 0.00 0.00 80 1003.5
20260505175004 80 197 4.0 10.0 0.00 0.00 0.00 80 1003.4
20260505174902 80 207 4.0 10.0 0.00 0.00 0.00 80 1003.4
20260505174804 80 179 4.0 11.0 0.00 0.00 0.00 80 1003.5
20260505174703 80 175 4.0 11.0 0.00 0.00 0.00 80 1003.5
20260505174603 80 204 4.0 11.0 0.00 0.00 0.00 80 1003.5
20260505174502 80 197 5.0 11.0 0.00 0.00 0.00 80 1003.5
20260505174402 80 164 5.0 11.0 0.00 0.00 0.00 80 1003.5
20260505174303 80 195 6.0 11.0 0.00 0.00 0.00 80 1003.5
20260505174202 80 210 6.0 12.0 0.00 0.00 0.00 80 1003.5
20260505174103 80 188 6.0 12.0 0.00 0.00 0.00 80 1003.5
20260505174003 80 186 6.0 12.0 0.00 0.00 0.00 80 1003.5
20260505173902 80 220 6.0 12.0 0.00 0.00 0.00 80 1003.5
20260505173802 80 47 5.0 12.0 0.00 0.00 0.00 80 1003.6
20260505173702 79 165 4.0 12.0 0.00 0.00 0.00 80 1003.6
20260505173603 79 183 5.0 12.0 0.00 0.00 0.00 80 1003.5
20260505173503 79 188 5.0 12.0 0.00 0.00 0.00 80 1003.6
20260505173401 79 220 6.0 12.0 0.00 0.00 0.00 80 1003.6
20260505173302 79 219 6.0 12.0 0.00 0.00 0.00 80 1003.5
20260505173202 79 190 5.0 10.0 0.00 0.00 0.00 80 1003.6
20260505173104 79 157 5.0 10.0 0.00 0.00 0.00 80 1003.6
20260505173003 80 202 5.0 10.0 0.00 0.00 0.00 80 1003.7
20260505172903 80 234 6.0 10.0 0.00 0.00 0.00 80 1003.7
20260505172803 80 176 6.0 10.0 0.00 0.00 0.00 80 1003.6
20260505172701 80 202 5.0 9.0 0.00 0.00 0.00 80 1003.6
20260505172602 80 180 4.0 9.0 0.00 0.00 0.00 80 1003.6
20260505172502 80 135 4.0 9.0 0.00 0.00 0.00 80 1003.7
20260505172403 80 179 5.0 9.0 0.00 0.00 0.00 80 1003.6
20260505172306 80 213 5.0 9.0 0.00 0.00 0.00 80 1003.5
20260505172203 80 243 5.0 9.0 0.00 0.00 0.00 80 1003.6
20260505172104 80 185 4.0 9.0 0.00 0.00 0.00 80 1003.5
20260505172003 80 176 4.0 9.0 0.00 0.00 0.00 80 1003.6
20260505171903 80 183 5.0 9.0 0.00 0.00 0.00 80 1003.6
20260505171804 80 168 3.0 7.0 0.00 0.00 0.00 81 1003.5
20260505171704 80 128 3.0 7.0 0.00 0.00 0.00 81 1003.5
20260505171603 80 145 3.0 7.0 0.00 0.00 0.00 81 1003.5
20260505171504 80 144 3.0 7.0 0.00 0.00 0.00 81 1003.6
20260505171404 80 161 3.0 9.0 0.00 0.00 0.00 81 1003.5
20260505171303 79 162 3.0 9.0 0.00 0.00 0.00 81 1003.5
20260505171203 79 175 3.0 9.0 0.00 0.00 0.00 81 1003.5
20260505171104 79 148 3.0 9.0 0.00 0.00 0.00 81 1003.5
20260505171003 79 157 2.0 9.0 0.00 0.00 0.00 81 1003.5
20260505170903 79 179 4.0 9.0 0.00 0.00 0.00 81 1003.5
20260505170802 79 182 4.0 9.0 0.00 0.00 0.00 81 1003.5
20260505170703 79 216 5.0 9.0 0.00 0.00 0.00 81 1003.5
20260505170601 79 183 6.0 9.0 0.00 0.00 0.00 81 1003.4
20260505170504 79 209 4.0 11.0 0.00 0.00 0.00 81 1003.5
20260505170403 79 200 3.0 11.0 0.00 0.00 0.00 81 1003.6
20260505170302 79 128 4.0 11.0 0.00 0.00 0.00 81 1003.5
20260505170201 79 228 4.0 11.0 0.00 0.00 0.00 81 1003.6
20260505170003 79 165 5.0 11.0 0.00 0.00 0.00 81 1003.6
20260505165903 79 182 6.0 11.0 0.00 0.00 0.00 81 1003.5
20260505165803 79 217 6.0 11.0 0.00 0.00 0.00 81 1003.6
20260505165703 79 148 6.0 11.0 0.00 0.00 0.00 82 1003.7
20260505165603 79 189 6.0 11.0 0.00 0.00 0.00 82 1003.6
20260505165503 79 202 5.0 11.0 0.00 0.00 0.00 82 1003.6
20260505165403 79 142 4.0 11.0 0.00 0.00 0.00 82 1003.7
20260505165302 79 196 5.0 11.0 0.00 0.00 0.00 82 1003.6
20260505165203 79 227 5.0 11.0 0.00 0.00 0.00 82 1003.7
20260505165102 79 188 5.0 11.0 0.00 0.00 0.00 82 1003.7
20260505165005 79 231 5.0 11.0 0.00 0.00 0.00 82 1003.6
20260505164902 79 168 3.0 9.0 0.00 0.00 0.00 82 1003.7
20260505164803 79 188 3.0 9.0 0.00 0.00 0.00 82 1003.8
20260505164701 79 189 3.0 9.0 0.00 0.00 0.00 82 1003.7
20260505164603 79 219 5.0 9.0 0.00 0.00 0.00 83 1003.6
20260505164503 79 173 4.0 9.0 0.00 0.00 0.00 83 1003.7
20260505164404 79 131 2.0 6.0 0.00 0.00 0.00 83 1003.6
20260505164302 79 217 2.0 6.0 0.00 0.00 0.00 83 1003.6
20260505164203 79 142 3.0 7.0 0.00 0.00 0.00 82 1003.7
20260505164102 79 142 4.0 7.0 0.00 0.00 0.00 82 1003.7
20260505164002 79 178 3.0 7.0 0.00 0.00 0.00 82 1003.6
20260505163903 79 195 3.0 7.0 0.00 0.00 0.00 82 1003.6
20260505163802 79 192 2.0 7.0 0.00 0.00 0.00 82 1003.5
20260505163704 79 168 2.0 9.0 0.00 0.00 0.00 82 1003.6
20260505163603 79 193 3.0 9.0 0.00 0.00 0.00 82 1003.6
20260505163503 79 185 4.0 9.0 0.00 0.00 0.00 82 1003.7
20260505163402 79 171 4.0 9.0 0.00 0.00 0.00 82 1003.7
20260505163302 79 168 3.0 9.0 0.00 0.00 0.00 82 1003.6
20260505163203 79 175 3.0 9.0 0.00 0.00 0.00 82 1003.6
20260505163104 79 212 4.0 9.0 0.00 0.00 0.00 82 1003.6
20260505163004 79 178 4.0 9.0 0.00 0.00 0.00 82 1003.6
20260505162902 79 199 5.0 9.0 0.00 0.00 0.00 82 1003.6
20260505162803 79 216 5.0 9.0 0.00 0.00 0.00 83 1003.6
20260505162702 79 178 4.0 7.0 0.00 0.00 0.00 83 1003.6
20260505162605 79 195 3.0 7.0 0.00 0.00 0.00 83 1003.6
20260505162502 79 152 2.0 7.0 0.00 0.00 0.00 83 1003.7
20260505162403 78 175 4.0 7.0 0.00 0.00 0.00 83 1003.6
20260505162306 78 192 5.0 7.0 0.00 0.00 0.00 83 1003.7
20260505162203 78 168 4.0 7.0 0.00 0.00 0.00 83 1003.6
20260505162104 78 196 4.0 7.0 0.00 0.00 0.00 83 1003.6
20260505162002 78 200 4.0 7.0 0.00 0.00 0.00 83 1003.6
20260505161902 78 199 4.0 7.0 0.00 0.00 0.00 83 1003.6
20260505161803 78 189 5.0 7.0 0.00 0.00 0.00 83 1003.6
20260505161702 78 182 5.0 7.0 0.00 0.00 0.00 83 1003.6
20260505161603 78 212 4.0 7.0 0.00 0.00 0.00 83 1003.6
20260505161504 78 197 4.0 7.0 0.00 0.00 0.00 83 1003.6
20260505161402 78 209 5.0 7.0 0.00 0.00 0.00 83 1003.6
20260505161302 78 204 4.0 9.0 0.00 0.00 0.00 83 1003.6
20260505161203 78 202 3.0 9.0 0.00 0.00 0.00 83 1003.7
20260505161104 78 168 3.0 9.0 0.00 0.00 0.00 83 1003.6
20260505161003 78 212 3.0 9.0 0.00 0.00 0.00 83 1003.7
20260505160903 78 207 2.0 9.0 0.00 0.00 0.00 83 1003.6
20260505160802 78 165 1.0 9.0 0.00 0.00 0.00 83 1003.6
20260505160703 78 188 2.0 9.0 0.00 0.00 0.00 83 1003.6
20260505160603 78 185 3.0 9.0 0.00 0.00 0.00 83 1003.6
20260505160502 78 182 4.0 9.0 0.00 0.00 0.00 83 1003.6
20260505160402 78 176 5.0 9.0 0.00 0.00 0.00 83 1003.6
20260505160304 78 209 6.0 9.0 0.00 0.00 0.00 84 1003.5
20260505160203 78 195 5.0 9.0 0.00 0.00 0.00 84 1003.5
20260505160104 78 172 4.0 9.0 0.00 0.00 0.00 84 1003.5
20260505153303 77 152 6.0 10.0 0.00 0.00 0.00 86 1003.3
20260505153203 77 192 4.0 9.0 0.00 0.00 0.00 86 1003.3
20260505153104 77 175 3.0 9.0 0.00 0.00 0.00 86 1003.3
20260505153004 77 185 3.0 9.0 0.00 0.00 0.00 87 1003.2
20260505152902 76 166 4.0 9.0 0.00 0.00 0.00 87 1003.2
20260505152801 76 157 4.0 9.0 0.00 0.00 0.00 87 1003.3
20260505152702 76 157 4.0 9.0 0.00 0.00 0.00 87 1003.2
20260505152603 76 158 4.0 9.0 0.00 0.00 0.00 87 1003.3
20260505152504 76 168 4.0 9.0 0.00 0.00 0.00 87 1003.3
20260505152404 76 138 4.0 9.0 0.00 0.00 0.00 88 1003.4
20260505152305 76 190 5.0 9.0 0.00 0.00 0.00 88 1003.4
20260505152202 76 166 4.0 9.0 0.00 0.00 0.00 88 1003.4
20260505152104 76 137 4.0 7.0 0.00 0.00 0.00 88 1003.4
20260505152004 76 158 3.0 7.0 0.00 0.00 0.00 88 1003.4
20260505151903 76 171 3.0 7.0 0.00 0.00 0.00 88 1003.4
20260505151803 75 145 4.0 7.0 0.00 0.00 0.00 88 1003.4
20260505151703 75 183 4.0 7.0 0.00 0.00 0.00 88 1003.4
20260505151603 75 131 3.0 6.0 0.00 0.00 0.00 88 1003.3
20260505151502 75 164 3.0 6.0 0.00 0.00 0.00 88 1003.4
20260505151403 75 164 4.0 6.0 0.00 0.00 0.00 88 1003.4
20260505151304 75 180 4.0 6.0 0.00 0.00 0.00 88 1003.4
20260505151204 75 217 4.0 6.0 0.00 0.00 0.00 88 1003.4
20260505151104 75 209 2.0 7.0 0.00 0.00 0.00 88 1003.4
20260505151003 75 161 2.0 9.0 0.00 0.00 0.00 88 1003.5
20260505150904 75 158 3.0 10.0 0.00 0.00 0.00 87 1003.5
20260505150803 75 165 3.0 10.0 0.00 0.00 0.00 87 1003.4
20260505150703 75 173 3.0 10.0 0.00 0.00 0.00 87 1003.4
20260505150603 75 202 3.0 10.0 0.00 0.00 0.00 87 1003.4
20260505150502 76 161 4.0 10.0 0.00 0.00 0.00 87 1003.4
20260505150402 75 192 4.0 10.0 0.00 0.00 0.00 87 1003.4
20260505150303 76 220 4.0 10.0 0.00 0.00 0.00 87 1003.4
20260505150203 76 195 5.0 10.0 0.00 0.00 0.00 87 1003.4
20260505140602 76 149 5.0 15.0 0.00 0.00 0.00 86 1003.1
20260505140503 76 149 4.0 14.0 0.00 0.00 0.00 87 1003.0
20260505140403 76 155 4.0 14.0 0.00 0.00 0.00 87 1003.0
20260505140303 76 178 4.0 14.0 0.00 0.00 0.00 87 1002.8
20260505140203 76 166 3.0 14.0 0.00 0.00 0.00 87 1002.8
20260505140104 76 116 3.0 14.0 0.00 0.00 0.00 87 1002.8
20260505130312 73 173 3.0 6.0 0.00 0.00 0.00 89 1003.0
20260505130212 73 188 4.0 6.0 0.00 0.00 0.00 89 1003.0
20260505130113 73 149 3.0 6.0 0.00 0.00 0.00 89 1003.0
20260505125012 73 144 3.0 5.0 0.00 0.00 0.00 90 1003.0
20260505124914 73 130 3.0 5.0 0.00 0.00 0.00 90 1003.1
20260505124813 73 118 3.0 5.0 0.00 0.00 0.00 90 1003.1
20260505124713 72 157 3.0 5.0 0.00 0.00 0.00 90 1003.1
20260505124614 72 169 2.0 5.0 0.00 0.00 0.00 90 1003.0
20260505124512 72 171 2.0 5.0 0.00 0.00 0.00 90 1003.0
20260505124411 72 175 2.0 5.0 0.00 0.00 0.00 90 1002.9
20260505124312 72 159 2.0 6.0 0.00 0.00 0.00 90 1003.1
20260505124213 72 128 2.0 6.0 0.00 0.00 0.00 90 1002.8
20260505124113 72 165 1.0 6.0 0.00 0.00 0.00 90 1003.0
20260505124013 72 162 2.0 6.0 0.00 0.00 0.00 90 1002.9
20260505123913 72 164 3.0 6.0 0.00 0.00 0.00 90 1003.0
20260505123812 72 157 3.0 6.0 0.00 0.00 0.00 90 1002.9
20260505123711 72 154 3.0 6.0 0.00 0.00 0.00 90 1003.0
20260505123613 72 140 3.0 6.0 0.00 0.00 0.00 90 1003.0
20260505123513 72 178 3.0 6.0 0.00 0.00 0.00 90 1003.0
20260505123412 72 130 3.0 6.0 0.00 0.00 0.00 90 1002.9
20260505123313 72 166 2.0 4.0 0.00 0.00 0.00 90 1003.1
20260505123211 72 137 2.0 4.0 0.00 0.00 0.00 90 1003.0
20260505123111 72 130 3.0 4.0 0.00 0.00 0.00 90 1002.9
20260505123013 72 148 2.0 4.0 0.00 0.00 0.00 90 1002.9
20260505122911 72 158 2.0 4.0 0.00 0.00 0.00 90 1002.9
20260505122813 72 154 2.0 4.0 0.00 0.00 0.00 90 1002.8
20260505122711 72 154 2.0 4.0 0.00 0.00 0.00 90 1002.8
20260505122611 72 162 2.0 4.0 0.00 0.00 0.00 90 1002.8
20260505122513 72 162 2.0 4.0 0.00 0.00 0.00 90 1002.9
20260505122411 72 149 2.0 4.0 0.00 0.00 0.00 91 1002.7
20260505122312 71 145 2.0 4.0 0.00 0.00 0.00 91 1002.7
20260505122214 71 147 2.0 4.0 0.00 0.00 0.00 91 1002.8
20260505122112 71 149 2.0 3.0 0.00 0.00 0.00 91 1002.8
20260505122013 71 154 1.0 3.0 0.00 0.00 0.00 91 1002.8
20260505121911 71 154 1.0 3.0 0.00 0.00 0.00 91 1002.8
20260505121811 71 157 1.0 3.0 0.00 0.00 0.00 91 1002.7
20260505121714 71 162 1.0 3.0 0.00 0.00 0.00 91 1002.8
20260505121613 71 164 1.0 3.0 0.00 0.00 0.00 91 1002.6
20260505121511 71 164 2.0 3.0 0.00 0.00 0.00 91 1002.7
20260505121411 71 161 2.0 3.0 0.00 0.00 0.00 91 1002.7
20260505121311 71 162 2.0 3.0 0.00 0.00 0.00 90 1002.8
20260505121211 71 154 1.0 3.0 0.00 0.00 0.00 91 1002.8
20260505121113 71 151 1.0 3.0 0.00 0.00 0.00 90 1002.9
20260505121011 71 151 0.0 3.0 0.00 0.00 0.00 90 1002.8
20260505120912 71 154 1.0 3.0 0.00 0.00 0.00 90 1002.8
20260505120811 71 152 1.0 5.0 0.00 0.00 0.00 90 1002.8
20260505120713 71 152 1.0 5.0 0.00 0.00 0.00 90 1002.8
20260505120611 71 149 2.0 5.0 0.00 0.00 0.00 90 1002.7
20260505120512 71 145 2.0 5.0 0.00 0.00 0.00 90 1002.6
20260505120412 71 154 1.0 5.0 0.00 0.00 0.00 90 1002.6
20260505120312 71 152 1.0 5.0 0.00 0.00 0.00 90 1002.6
20260505120212 71 151 1.0 5.0 0.00 0.00 0.00 90 1002.6
20260505120111 71 149 1.0 5.0 0.00 0.00 0.00 90 1002.6
20260505120013 71 154 2.0 5.0 0.00 0.00 0.00 90 1002.5
20260505115910 71 157 2.0 5.0 0.00 0.00 0.00 90 1002.6
20260505115810 71 165 2.0 5.0 0.00 0.00 0.00 90 1002.5
20260505115711 71 145 1.0 5.0 0.00 0.00 0.00 90 1002.6
20260505115610 71 151 1.0 5.0 0.00 0.00 0.00 90 1002.5
20260505115511 71 151 2.0 5.0 0.00 0.00 0.00 90 1002.5
20260505115411 71 155 2.0 5.0 0.00 0.00 0.00 90 1002.6
20260505115311 71 155 2.0 5.0 0.00 0.00 0.00 90 1002.6
20260505115210 71 157 2.0 5.0 0.00 0.00 0.00 90 1002.6
20260505115112 71 166 2.0 5.0 0.00 0.00 0.00 90 1002.6
20260505115010 71 157 2.0 5.0 0.00 0.00 0.00 90 1002.4
20260505114912 71 152 1.0 5.0 0.00 0.00 0.00 90 1002.4
20260505114811 71 147 1.0 5.0 0.00 0.00 0.00 90 1002.3
20260505114710 71 149 1.0 5.0 0.00 0.00 0.00 90 1002.4
20260505114611 71 142 2.0 5.0 0.00 0.00 0.00 90 1002.3
20260505114511 71 152 2.0 5.0 0.00 0.00 0.00 90 1002.2
20260505114410 71 141 2.0 5.0 0.00 0.00 0.00 90 1002.2
20260505114311 71 155 2.0 6.0 0.00 0.00 0.00 90 1002.2
20260505114210 71 158 2.0 6.0 0.00 0.00 0.00 90 1002.2
20260505114110 71 159 2.0 6.0 0.00 0.00 0.00 90 1002.3
20260505114011 71 130 1.0 6.0 0.00 0.00 0.00 90 1002.3
20260505113911 71 157 1.0 6.0 0.00 0.00 0.00 90 1002.4
20260505113810 71 157 2.0 6.0 0.00 0.00 0.00 90 1002.5
20260505113710 71 159 2.0 6.0 0.00 0.00 0.00 90 1002.5